Wetterdaten: Sonntag, 02.10.2022
Datum Zeit Temp. Aussen Temp. o. S. Temp +5cm Feuchte Auss Luftdruck Regen Sonnenschein Regendauer Solar Windben Empfang
02.10.2022 00:00 11,9 C 11,1 C 7,8 C 92 % 1014,3 hPa 0,0 l/m 0 min 0 min 0 W/m 12,9 km/h (3 Bft) 97,83 %
02.10.2022 00:02 11,9 C 11,1 C 7,8 C 92 % 1014,3 hPa 0,0 l/m 0 min 0 min 0 W/m 9,7 km/h (2 Bft) 95,24 %
02.10.2022 00:04 11,9 C 11,1 C 7,8 C 92 % 1014,4 hPa 0,0 l/m 0 min 0 min 0 W/m 6,4 km/h (2 Bft) 97,87 %
02.10.2022 00:08 11,9 C 11,1 C 7,8 C 92 % 1014,4 hPa 0,0 l/m 0 min 0 min 0 W/m 9,7 km/h (2 Bft) 97,56 %
02.10.2022 00:10 11,9 C 11,1 C 7,8 C 92 % 1014,4 hPa 0,0 l/m 0 min 0 min 0 W/m 6,4 km/h (2 Bft) 98,11 %
02.10.2022 00:12 11,9 C 11,1 C 7,8 C 92 % 1014,5 hPa 0,0 l/m 0 min 0 min 0 W/m 12,9 km/h (3 Bft) 93,48 %
02.10.2022 00:14 11,8 C 11,1 C 7,8 C 92 % 1014,5 hPa 0,0 l/m 0 min 0 min 0 W/m 9,7 km/h (2 Bft) 95,74 %
02.10.2022 00:16 11,9 C 11,1 C 7,8 C 92 % 1014,5 hPa 0,0 l/m 0 min 0 min 0 W/m 19,3 km/h (3 Bft) 97,87 %
02.10.2022 00:18 11,9 C 11,1 C 7,8 C 92 % 1014,5 hPa 0,0 l/m 0 min 0 min 0 W/m 6,4 km/h (2 Bft) 93,62 %
02.10.2022 00:20 11,9 C 11,1 C 7,8 C 92 % 1014,6 hPa 0,0 l/m 0 min 0 min 0 W/m 12,9 km/h (3 Bft) 97,87 %
02.10.2022 00:22 11,9 C 11,1 C 8,3 C 92 % 1014,6 hPa 0,0 l/m 0 min 0 min 0 W/m 12,9 km/h (3 Bft) 97,87 %
02.10.2022 00:24 11,9 C 11,1 C 8,3 C 92 % 1014,6 hPa 0,0 l/m 0 min 0 min 0 W/m 9,7 km/h (2 Bft) 97,83 %
02.10.2022 00:26 11,9 C 11,1 C 8,3 C 92 % 1014,7 hPa 0,0 l/m 0 min 0 min 0 W/m 12,9 km/h (3 Bft) 97,87 %
02.10.2022 00:28 12,0 C 11,1 C 8,3 C 92 % 1014,7 hPa 0,0 l/m 0 min 0 min 0 W/m 6,4 km/h (2 Bft) 95,74 %
02.10.2022 00:30 12,0 C 11,1 C 8,3 C 92 % 1014,7 hPa 0,0 l/m 0 min 0 min 0 W/m 6,4 km/h (2 Bft) 95,74 %
02.10.2022 00:32 12,1 C 11,1 C 8,3 C 92 % 1014,7 hPa 0,0 l/m 0 min 0 min 0 W/m 9,7 km/h (2 Bft) 97,87 %
02.10.2022 00:34 12,1 C 11,1 C 8,3 C 92 % 1014,7 hPa 0,0 l/m 0 min 0 min 0 W/m 6,4 km/h (2 Bft) 97,87 %
02.10.2022 00:36 12,1 C 11,7 C 8,3 C 92 % 1014,7 hPa 0,0 l/m 0 min 0 min 0 W/m 6,4 km/h (2 Bft) 98,28 %
02.10.2022 00:38 12,2 C 11,7 C 8,3 C 92 % 1014,8 hPa 0,0 l/m 0 min 0 min 0 W/m 6,4 km/h (2 Bft) 95,74 %
02.10.2022 00:40 12,2 C 11,7 C 8,3 C 92 % 1014,8 hPa 0,0 l/m 0 min 0 min 0 W/m 12,9 km/h (3 Bft) 100,00 %
02.10.2022 00:42 12,2 C 11,7 C 8,3 C 92 % 1014,7 hPa 0,0 l/m 0 min 0 min 0 W/m 12,9 km/h (3 Bft) 97,87 %
02.10.2022 00:44 12,2 C 11,7 C 8,3 C 92 % 1014,7 hPa 0,0 l/m 0 min 0 min 0 W/m 9,7 km/h (2 Bft) 97,87 %
02.10.2022 00:46 12,3 C 11,7 C 8,3 C 92 % 1014,8 hPa 0,0 l/m 0 min 0 min 0 W/m 12,9 km/h (3 Bft) 95,74 %
02.10.2022 00:48 12,3 C 11,7 C 8,3 C 93 % 1014,7 hPa 0,0 l/m 0 min 0 min 0 W/m 12,9 km/h (3 Bft) 97,83 %
02.10.2022 00:50 12,3 C 11,7 C 8,3 C 93 % 1014,8 hPa 0,0 l/m 0 min 0 min 0 W/m 12,9 km/h (3 Bft) 95,74 %
02.10.2022 00:52 12,3 C 11,7 C 8,3 C 93 % 1014,7 hPa 0,0 l/m 0 min 0 min 0 W/m 12,9 km/h (3 Bft) 95,74 %
02.10.2022 00:54 12,3 C 11,7 C 8,3 C 93 % 1014,7 hPa 0,0 l/m 0 min 0 min 0 W/m 6,4 km/h (2 Bft) 97,87 %
02.10.2022 00:56 12,4 C 11,7 C 8,3 C 93 % 1014,7 hPa 0,0 l/m 0 min 0 min 0 W/m 9,7 km/h (2 Bft) 100,00 %
02.10.2022 00:58 12,4 C 11,7 C 8,3 C 93 % 1014,7 hPa 0,0 l/m 0 min 0 min 0 W/m 12,9 km/h (3 Bft) 100,00 %
02.10.2022 01:00 12,4 C 11,7 C 8,3 C 93 % 1014,7 hPa 0,0 l/m 0 min 0 min 0 W/m 12,9 km/h (3 Bft) 95,65 %
02.10.2022 01:02 12,4 C 11,7 C 8,3 C 93 % 1014,7 hPa 0,0 l/m 0 min 0 min 0 W/m 6,4 km/h (2 Bft) 97,92 %
02.10.2022 01:04 12,5 C 11,7 C 8,3 C 93 % 1014,8 hPa 0,0 l/m 0 min 0 min 0 W/m 6,4 km/h (2 Bft) 100,00 %
02.10.2022 01:06 12,5 C 11,7 C 8,3 C 93 % 1014,8 hPa 0,0 l/m 0 min 0 min 0 W/m 6,4 km/h (2 Bft) 98,31 %
02.10.2022 01:08 12,5 C 11,7 C 8,3 C 93 % 1014,8 hPa 0,0 l/m 0 min 0 min 0 W/m 9,7 km/h (2 Bft) 97,14 %
02.10.2022 01:10 12,5 C 11,7 C 8,3 C 93 % 1014,8 hPa 0,0 l/m 0 min 0 min 0 W/m 6,4 km/h (2 Bft) 97,87 %
02.10.2022 01:12 12,5 C 11,7 C 8,3 C 93 % 1014,8 hPa 0,0 l/m 0 min 0 min 0 W/m 12,9 km/h (3 Bft) 97,83 %
02.10.2022 01:14 12,5 C 11,7 C 8,3 C 93 % 1014,8 hPa 0,0 l/m 0 min 0 min 0 W/m 12,9 km/h (3 Bft) 97,87 %
02.10.2022 01:16 12,6 C 11,7 C 8,3 C 93 % 1014,8 hPa 0,0 l/m 0 min 0 min 0 W/m 12,9 km/h (3 Bft) 97,87 %
02.10.2022 01:18 12,6 C 11,7 C 8,3 C 93 % 1014,8 hPa 0,0 l/m 0 min 0 min 0 W/m 12,9 km/h (3 Bft) 95,74 %
02.10.2022 01:20 12,6 C 11,7 C 8,3 C 93 % 1014,8 hPa 0,0 l/m 0 min 0 min 0 W/m 12,9 km/h (3 Bft) 97,87 %
02.10.2022 01:22 12,6 C 11,7 C 8,9 C 94 % 1014,8 hPa 0,0 l/m 0 min 0 min 0 W/m 19,3 km/h (3 Bft) 97,87 %
02.10.2022 01:24 12,7 C 11,7 C 8,9 C 94 % 1014,8 hPa 0,0 l/m 0 min 0 min 0 W/m 16,1 km/h (3 Bft) 97,83 %
02.10.2022 01:26 12,7 C 11,7 C 8,9 C 94 % 1014,8 hPa 0,0 l/m 0 min 0 min 0 W/m 16,1 km/h (3 Bft) 97,87 %
02.10.2022 01:28 12,7 C 11,7 C 8,9 C 94 % 1014,8 hPa 0,0 l/m 0 min 0 min 0 W/m 12,9 km/h (3 Bft) 97,87 %
02.10.2022 01:30 12,7 C 11,7 C 8,9 C 94 % 1014,8 hPa 0,0 l/m 0 min 0 min 0 W/m 12,9 km/h (3 Bft) 97,87 %
02.10.2022 01:32 12,7 C 11,7 C 8,9 C 94 % 1014,9 hPa 0,0 l/m 0 min 0 min 0 W/m 19,3 km/h (3 Bft) 97,87 %
02.10.2022 01:34 12,7 C 11,7 C 8,9 C 94 % 1014,9 hPa 0,0 l/m 0 min 0 min 0 W/m 19,3 km/h (3 Bft) 97,87 %
02.10.2022 01:36 12,7 C 11,7 C 8,9 C 94 % 1014,9 hPa 0,0 l/m 0 min 0 min 0 W/m 16,1 km/h (3 Bft) 98,28 %
02.10.2022 01:38 12,7 C 11,7 C 8,9 C 94 % 1014,9 hPa 0,0 l/m 0 min 0 min 0 W/m 12,9 km/h (3 Bft) 97,14 %
02.10.2022 01:40 12,7 C 11,7 C 8,9 C 94 % 1014,8 hPa 0,0 l/m 0 min 0 min 0 W/m 12,9 km/h (3 Bft) 98,00 %
02.10.2022 01:42 12,8 C 11,7 C 8,9 C 94 % 1014,9 hPa 0,0 l/m 0 min 0 min 0 W/m 12,9 km/h (3 Bft) 97,87 %
02.10.2022 01:44 12,8 C 11,7 C 8,9 C 94 % 1014,9 hPa 0,0 l/m 0 min 0 min 0 W/m 6,4 km/h (2 Bft) 97,87 %
02.10.2022 01:46 12,7 C 11,7 C 8,9 C 94 % 1014,9 hPa 0,0 l/m 0 min 0 min 0 W/m 12,9 km/h (3 Bft) 97,87 %
02.10.2022 01:48 12,7 C 11,7 C 8,9 C 94 % 1015,0 hPa 0,0 l/m 0 min 0 min 0 W/m 16,1 km/h (3 Bft) 97,83 %
02.10.2022 01:50 12,7 C 11,7 C 8,9 C 94 % 1014,9 hPa 0,0 l/m 0 min 0 min 0 W/m 12,9 km/h (3 Bft) 100,00 %
02.10.2022 01:52 12,7 C 11,7 C 8,9 C 94 % 1014,9 hPa 0,0 l/m 0 min 0 min 0 W/m 6,4 km/h (2 Bft) 100,00 %
02.10.2022 01:54 12,8 C 11,7 C 8,9 C 94 % 1014,9 hPa 0,0 l/m 0 min 0 min 0 W/m 12,9 km/h (3 Bft) 100,00 %
02.10.2022 01:56 12,8 C 12,2 C 8,9 C 94 % 1015,0 hPa 0,0 l/m 0 min 0 min 0 W/m 6,4 km/h (2 Bft) 100,00 %
02.10.2022 01:58 12,8 C 12,2 C 8,9 C 94 % 1015,0 hPa 0,0 l/m 0 min 0 min 0 W/m 16,1 km/h (3 Bft) 100,00 %
02.10.2022 02:00 12,8 C 12,2 C 8,9 C 94 % 1015,0 hPa 0,0 l/m 0 min 0 min 0 W/m 16,1 km/h (3 Bft) 100,00 %
02.10.2022 02:02 12,8 C 12,2 C 8,9 C 94 % 1015,0 hPa 0,0 l/m 0 min 0 min 0 W/m 9,7 km/h (2 Bft) 100,00 %
02.10.2022 02:04 12,8 C 12,2 C 8,9 C 94 % 1015,0 hPa 0,0 l/m 0 min 0 min 0 W/m 12,9 km/h (3 Bft) 100,00 %
02.10.2022 02:06 12,8 C 12,2 C 8,9 C 95 % 1015,0 hPa 0,0 l/m 0 min 0 min 0 W/m 12,9 km/h (3 Bft) 100,00 %
02.10.2022 02:08 12,8 C 12,2 C 8,9 C 95 % 1015,0 hPa 0,0 l/m 0 min 0 min 0 W/m 9,7 km/h (2 Bft) 100,00 %
02.10.2022 02:10 12,8 C 11,7 C 8,9 C 95 % 1015,0 hPa 0,0 l/m 0 min 0 min 0 W/m 6,4 km/h (2 Bft) 100,00 %
02.10.2022 02:12 12,8 C 11,7 C 8,9 C 95 % 1015,0 hPa 0,0 l/m 0 min 0 min 0 W/m 6,4 km/h (2 Bft) 97,87 %
02.10.2022 02:14 12,8 C 12,2 C 8,9 C 95 % 1015,1 hPa 0,0 l/m 0 min 0 min 0 W/m 9,7 km/h (2 Bft) 97,87 %
02.10.2022 02:16 12,8 C 12,2 C 8,9 C 95 % 1015,0 hPa 0,0 l/m 0 min 0 min 0 W/m 9,7 km/h (2 Bft) 97,87 %
02.10.2022 02:18 12,8 C 12,2 C 8,9 C 95 % 1015,1 hPa 0,0 l/m 0 min 0 min 0 W/m 6,4 km/h (2 Bft) 97,87 %
02.10.2022 02:20 12,9 C 12,2 C 8,9 C 95 % 1015,1 hPa 0,0 l/m 0 min 0 min 0 W/m 19,3 km/h (3 Bft) 97,87 %
02.10.2022 02:22 12,9 C 12,2 C 8,9 C 95 % 1015,1 hPa 0,0 l/m 0 min 0 min 0 W/m 9,7 km/h (2 Bft) 97,83 %
02.10.2022 02:24 12,9 C 12,2 C 8,9 C 95 % 1015,1 hPa 0,0 l/m 0 min 0 min 0 W/m 12,9 km/h (3 Bft) 97,87 %
02.10.2022 02:26 12,9 C 12,2 C 8,9 C 95 % 1015,1 hPa 0,0 l/m 0 min 0 min 0 W/m 16,1 km/h (3 Bft) 95,74 %
02.10.2022 02:28 12,9 C 12,2 C 8,9 C 95 % 1015,1 hPa 0,0 l/m 0 min 0 min 0 W/m 9,7 km/h (2 Bft) 93,62 %
02.10.2022 02:30 12,9 C 12,2 C 8,9 C 95 % 1015,1 hPa 0,0 l/m 0 min 0 min 0 W/m 6,4 km/h (2 Bft) 95,74 %
02.10.2022 02:32 12,9 C 12,2 C 8,9 C 95 % 1015,2 hPa 0,0 l/m 0 min 0 min 0 W/m 6,4 km/h (2 Bft) 95,74 %
02.10.2022 02:34 12,9 C 12,2 C 8,9 C 95 % 1015,2 hPa 0,0 l/m 0 min 0 min 0 W/m 6,4 km/h (2 Bft) 95,65 %
02.10.2022 02:36 12,9 C 12,2 C 8,9 C 95 % 1015,3 hPa 0,0 l/m 0 min 0 min 0 W/m 12,9 km/h (3 Bft) 95,74 %
02.10.2022 02:38 13,0 C 12,2 C 8,9 C 95 % 1015,3 hPa 0,0 l/m 0 min 0 min 0 W/m 6,4 km/h (2 Bft) 95,74 %
02.10.2022 02:40 13,0 C 12,2 C 8,9 C 95 % 1015,3 hPa 0,0 l/m 0 min 0 min 0 W/m 6,4 km/h (2 Bft) 95,74 %
02.10.2022 02:42 13,0 C 12,2 C 8,9 C 95 % 1015,3 hPa 0,0 l/m 0 min 0 min 0 W/m 9,7 km/h (2 Bft) 95,74 %
02.10.2022 02:44 13,0 C 12,2 C 8,9 C 95 % 1015,3 hPa 0,0 l/m 0 min 0 min 0 W/m 6,4 km/h (2 Bft) 91,49 %
02.10.2022 02:46 13,0 C 12,2 C 8,9 C 95 % 1015,2 hPa 0,0 l/m 0 min 0 min 0 W/m 6,4 km/h (2 Bft) 95,65 %
02.10.2022 02:48 13,1 C 12,2 C 8,9 C 95 % 1015,3 hPa 0,0 l/m 0 min 0 min 0 W/m 6,4 km/h (2 Bft) 95,74 %
02.10.2022 02:50 13,1 C 12,2 C 8,9 C 95 % 1015,2 hPa 0,0 l/m 0 min 0 min 0 W/m 12,9 km/h (3 Bft) 97,87 %
02.10.2022 02:52 13,1 C 12,2 C 8,9 C 95 % 1015,2 hPa 0,0 l/m 0 min 0 min 0 W/m 12,9 km/h (3 Bft) 97,87 %
02.10.2022 02:54 13,1 C 12,2 C 8,9 C 95 % 1015,2 hPa 0,0 l/m 0 min 0 min 0 W/m 6,4 km/h (2 Bft) 95,74 %
02.10.2022 02:56 13,1 C 12,2 C 8,9 C 95 % 1015,2 hPa 0,0 l/m 0 min 0 min 0 W/m 22,5 km/h (4 Bft) 95,65 %
02.10.2022 02:58 13,2 C 12,2 C 9,4 C 95 % 1015,2 hPa 0,0 l/m 0 min 0 min 0 W/m 19,3 km/h (3 Bft) 97,87 %
02.10.2022 03:00 13,2 C 12,2 C 9,4 C 95 % 1015,2 hPa 0,0 l/m 0 min 0 min 0 W/m 6,4 km/h (2 Bft) 97,87 %
02.10.2022 03:02 13,2 C 12,2 C 9,4 C 95 % 1015,2 hPa 0,0 l/m 0 min 0 min 0 W/m 12,9 km/h (3 Bft) 91,49 %
02.10.2022 03:04 13,2 C 12,8 C 9,4 C 96 % 1015,3 hPa 0,0 l/m 0 min 0 min 0 W/m 12,9 km/h (3 Bft) 97,87 %
02.10.2022 03:06 13,3 C 12,8 C 9,4 C 96 % 1015,3 hPa 0,0 l/m 0 min 0 min 0 W/m 6,4 km/h (2 Bft) 97,87 %
02.10.2022 03:08 13,3 C 12,8 C 9,4 C 96 % 1015,3 hPa 0,0 l/m 0 min 0 min 0 W/m 12,9 km/h (3 Bft) 95,65 %
02.10.2022 03:10 13,3 C 12,8 C 9,4 C 96 % 1015,3 hPa 0,0 l/m 0 min 0 min 0 W/m 6,4 km/h (2 Bft) 97,87 %
02.10.2022 03:12 13,3 C 12,8 C 9,4 C 95 % 1015,4 hPa 0,0 l/m 0 min 0 min 0 W/m 16,1 km/h (3 Bft) 97,87 %
02.10.2022 03:14 13,4 C 12,8 C 9,4 C 95 % 1015,4 hPa 0,0 l/m 0 min 0 min 0 W/m 12,9 km/h (3 Bft) 100,00 %
02.10.2022 03:16 13,4 C 12,8 C 9,4 C 95 % 1015,4 hPa 0,0 l/m 0 min 0 min 0 W/m 6,4 km/h (2 Bft) 100,00 %
02.10.2022 03:18 13,4 C 12,8 C 9,4 C 95 % 1015,4 hPa 0,0 l/m 0 min 0 min 0 W/m 12,9 km/h (3 Bft) 100,00 %
02.10.2022 03:20 13,4 C 12,8 C 9,4 C 95 % 1015,3 hPa 0,0 l/m 0 min 0 min 0 W/m 12,9 km/h (3 Bft) 97,83 %
02.10.2022 03:22 13,4 C 12,8 C 9,4 C 95 % 1015,4 hPa 0,0 l/m 0 min 0 min 0 W/m 12,9 km/h (3 Bft) 100,00 %
02.10.2022 03:24 13,4 C 12,8 C 9,4 C 95 % 1015,4 hPa 0,0 l/m 0 min 0 min 0 W/m 6,4 km/h (2 Bft) 100,00 %
02.10.2022 03:26 13,4 C 12,8 C 9,4 C 95 % 1015,4 hPa 0,0 l/m 0 min 0 min 0 W/m 12,9 km/h (3 Bft) 100,00 %
02.10.2022 03:28 13,4 C 12,8 C 9,4 C 95 % 1015,4 hPa 0,0 l/m 0 min 0 min 0 W/m 16,1 km/h (3 Bft) 95,74 %
02.10.2022 03:30 13,4 C 12,8 C 9,4 C 95 % 1015,4 hPa 0,0 l/m 0 min 0 min 0 W/m 12,9 km/h (3 Bft) 100,00 %
02.10.2022 03:32 13,4 C 12,8 C 9,4 C 95 % 1015,4 hPa 0,0 l/m 0 min 0 min 0 W/m 12,9 km/h (3 Bft) 97,83 %
02.10.2022 03:34 13,4 C 12,8 C 9,4 C 95 % 1015,4 hPa 0,0 l/m 0 min 0 min 0 W/m 19,3 km/h (3 Bft) 100,00 %
02.10.2022 03:36 13,4 C 12,8 C 9,4 C 95 % 1015,4 hPa 0,0 l/m 0 min 0 min 0 W/m 9,7 km/h (2 Bft) 97,87 %
02.10.2022 03:38 13,4 C 12,8 C 9,4 C 95 % 1015,4 hPa 0,0 l/m 0 min 0 min 0 W/m 12,9 km/h (3 Bft) 97,87 %
02.10.2022 03:40 13,4 C 12,8 C 9,4 C 95 % 1015,4 hPa 0,0 l/m 0 min 0 min 0 W/m 12,9 km/h (3 Bft) 97,87 %
02.10.2022 03:42 13,4 C 12,8 C 9,4 C 95 % 1015,4 hPa 0,0 l/m 0 min 0 min 0 W/m 6,4 km/h (2 Bft) 97,87 %
02.10.2022 03:44 13,4 C 12,8 C 9,4 C 95 % 1015,4 hPa 0,0 l/m 0 min 0 min 0 W/m 6,4 km/h (2 Bft) 97,83 %
02.10.2022 03:46 13,4 C 12,8 C 9,4 C 95 % 1015,5 hPa 0,0 l/m 0 min 0 min 0 W/m 6,4 km/h (2 Bft) 97,87 %
02.10.2022 03:48 13,4 C 12,8 C 9,4 C 95 % 1015,5 hPa 0,0 l/m 0 min 0 min 0 W/m 12,9 km/h (3 Bft) 97,87 %
02.10.2022 03:50 13,5 C 12,8 C 9,4 C 95 % 1015,4 hPa 0,0 l/m 0 min 0 min 0 W/m 16,1 km/h (3 Bft) 97,87 %
02.10.2022 03:52 13,5 C 12,8 C 9,4 C 96 % 1015,4 hPa 0,0 l/m 0 min 0 min 0 W/m 12,9 km/h (3 Bft) 97,87 %
02.10.2022 03:54 13,5 C 12,8 C 9,4 C 96 % 1015,4 hPa 0,0 l/m 0 min 0 min 0 W/m 12,9 km/h (3 Bft) 97,83 %
02.10.2022 03:56 13,6 C 12,8 C 9,4 C 96 % 1015,4 hPa 0,0 l/m 0 min 0 min 0 W/m 12,9 km/h (3 Bft) 97,87 %
02.10.2022 03:58 13,6 C 12,8 C 9,4 C 96 % 1015,4 hPa 0,0 l/m 0 min 0 min 0 W/m 12,9 km/h (3 Bft) 97,87 %
02.10.2022 04:00 13,6 C 12,8 C 9,4 C 96 % 1015,4 hPa 0,0 l/m 0 min 0 min 0 W/m 12,9 km/h (3 Bft) 97,87 %
02.10.2022 04:02 13,6 C 12,8 C 9,4 C 96 % 1015,4 hPa 0,0 l/m 0 min 0 min 0 W/m 12,9 km/h (3 Bft) 100,00 %
02.10.2022 04:04 13,6 C 12,8 C 9,4 C 96 % 1015,5 hPa 0,0 l/m 0 min 0 min 0 W/m 16,1 km/h (3 Bft) 93,62 %
02.10.2022 04:06 13,6 C 12,8 C 9,4 C 96 % 1015,5 hPa 0,0 l/m 0 min 0 min 0 W/m 12,9 km/h (3 Bft) 97,83 %
02.10.2022 04:11 13,6 C 12,8 C 9,4 C 96 % 1015,3 hPa 0,0 l/m 0 min 0 min 0 W/m 19,3 km/h (3 Bft) 95,83 %
02.10.2022 04:12 13,6 C 12,8 C 9,4 C 96 % 1015,3 hPa 0,0 l/m 0 min 0 min 0 W/m 9,7 km/h (2 Bft) 95,65 %
02.10.2022 04:14 13,6 C 12,8 C 9,4 C 96 % 1015,3 hPa 0,0 l/m 0 min 0 min 0 W/m 6,4 km/h (2 Bft) 97,87 %
02.10.2022 04:16 13,6 C 12,8 C 9,4 C 96 % 1015,3 hPa 0,0 l/m 0 min 0 min 0 W/m 12,9 km/h (3 Bft) 97,87 %
02.10.2022 04:18 13,6 C 12,8 C 9,4 C 96 % 1015,2 hPa 0,0 l/m 0 min 0 min 0 W/m 12,9 km/h (3 Bft) 93,48 %
02.10.2022 04:20 13,6 C 12,8 C 9,4 C 96 % 1015,2 hPa 0,0 l/m 0 min 0 min 0 W/m 6,4 km/h (2 Bft) 78,72 %
02.10.2022 04:22 13,6 C 12,8 C 9,4 C 96 % 1015,2 hPa 0,0 l/m 0 min 0 min 0 W/m 6,4 km/h (2 Bft) 45,45 %
02.10.2022 04:24 13,6 C 12,8 C 9,4 C 96 % 1015,2 hPa 0,0 l/m 0 min 0 min 0 W/m 12,9 km/h (3 Bft) 100,00 %
02.10.2022 04:26 13,6 C 12,8 C 9,4 C 96 % 1015,2 hPa 0,0 l/m 0 min 0 min 0 W/m 12,9 km/h (3 Bft) 95,74 %
02.10.2022 04:28 13,6 C 12,8 C 9,4 C 96 % 1015,3 hPa 0,0 l/m 0 min 0 min 0 W/m 9,7 km/h (2 Bft) 100,00 %
02.10.2022 04:30 13,6 C 12,8 C 9,4 C 96 % 1015,2 hPa 0,0 l/m 0 min 0 min 0 W/m 6,4 km/h (2 Bft) 97,83 %
02.10.2022 04:32 13,6 C 12,8 C 9,4 C 96 % 1015,2 hPa 0,0 l/m 0 min 0 min 0 W/m 6,4 km/h (2 Bft) 97,87 %
02.10.2022 04:34 13,6 C 12,8 C 9,4 C 96 % 1015,3 hPa 0,0 l/m 0 min 0 min 0 W/m 12,9 km/h (3 Bft) 100,00 %
02.10.2022 04:36 13,6 C 12,8 C 9,4 C 96 % 1015,4 hPa 0,0 l/m 0 min 0 min 0 W/m 16,1 km/h (3 Bft) 95,74 %
02.10.2022 04:38 13,6 C 12,8 C 9,4 C 96 % 1015,4 hPa 0,0 l/m 0 min 0 min 0 W/m 9,7 km/h (2 Bft) 97,87 %
02.10.2022 04:40 13,6 C 12,8 C 9,4 C 96 % 1015,4 hPa 0,0 l/m 0 min 0 min 0 W/m 6,4 km/h (2 Bft) 97,87 %
02.10.2022 04:42 13,6 C 12,8 C 9,4 C 96 % 1015,4 hPa 0,0 l/m 0 min 0 min 0 W/m 9,7 km/h (2 Bft) 97,83 %
02.10.2022 04:44 13,6 C 12,8 C 9,4 C 96 % 1015,4 hPa 0,0 l/m 0 min 0 min 0 W/m 6,4 km/h (2 Bft) 97,87 %
02.10.2022 04:46 13,6 C 12,8 C 9,4 C 96 % 1015,4 hPa 0,0 l/m 0 min 0 min 0 W/m 9,7 km/h (2 Bft) 97,87 %
02.10.2022 04:48 13,6 C 12,8 C 9,4 C 96 % 1015,4 hPa 0,0 l/m 0 min 0 min 0 W/m 12,9 km/h (3 Bft) 97,87 %
02.10.2022 04:50 13,6 C 12,8 C 9,4 C 96 % 1015,4 hPa 0,0 l/m 0 min 0 min 0 W/m 12,9 km/h (3 Bft) 100,00 %
02.10.2022 04:52 13,7 C 12,8 C 10,0 C 96 % 1015,4 hPa 0,0 l/m 0 min 0 min 0 W/m 16,1 km/h (3 Bft) 97,87 %
02.10.2022 04:54 13,7 C 12,8 C 10,0 C 96 % 1015,4 hPa 0,0 l/m 0 min 0 min 0 W/m 3,2 km/h (1 Bft) 97,83 %
02.10.2022 04:56 13,7 C 12,8 C 10,0 C 96 % 1015,4 hPa 0,0 l/m 0 min 0 min 0 W/m 16,1 km/h (3 Bft) 100,00 %
02.10.2022 04:58 13,7 C 12,8 C 10,0 C 96 % 1015,4 hPa 0,0 l/m 0 min 0 min 0 W/m 6,4 km/h (2 Bft) 100,00 %
02.10.2022 05:00 13,7 C 12,8 C 10,0 C 96 % 1015,5 hPa 0,0 l/m 0 min 0 min 0 W/m 9,7 km/h (2 Bft) 100,00 %
02.10.2022 05:02 13,7 C 12,8 C 10,0 C 96 % 1015,5 hPa 0,0 l/m 0 min 0 min 0 W/m 12,9 km/h (3 Bft) 100,00 %
02.10.2022 05:04 13,7 C 12,8 C 10,0 C 96 % 1015,4 hPa 0,0 l/m 0 min 0 min 0 W/m 6,4 km/h (2 Bft) 100,00 %
02.10.2022 05:06 13,7 C 12,8 C 10,0 C 96 % 1015,3 hPa 0,0 l/m 0 min 0 min 0 W/m 6,4 km/h (2 Bft) 100,00 %
02.10.2022 05:08 13,7 C 12,8 C 10,0 C 96 % 1015,3 hPa 0,0 l/m 0 min 2 min 0 W/m 9,7 km/h (2 Bft) 100,00 %
02.10.2022 05:10 13,8 C 12,8 C 9,4 C 96 % 1015,3 hPa 0,0 l/m 0 min 2 min 0 W/m 16,1 km/h (3 Bft) 100,00 %
02.10.2022 05:12 13,8 C 12,8 C 9,4 C 96 % 1015,3 hPa 0,0 l/m 0 min 2 min 0 W/m 6,4 km/h (2 Bft) 100,00 %
02.10.2022 05:14 13,8 C 12,8 C 9,4 C 96 % 1015,4 hPa 0,0 l/m 0 min 2 min 0 W/m 16,1 km/h (3 Bft) 100,00 %
02.10.2022 05:16 13,8 C 12,8 C 9,4 C 96 % 1015,4 hPa 0,0 l/m 0 min 2 min 0 W/m 25,7 km/h (4 Bft) 100,00 %
02.10.2022 05:18 13,8 C 12,8 C 9,4 C 96 % 1015,4 hPa 0,0 l/m 0 min 2 min 0 W/m 12,9 km/h (3 Bft) 97,87 %
02.10.2022 05:20 13,8 C 12,8 C 9,4 C 96 % 1015,4 hPa 0,0 l/m 0 min 2 min 0 W/m 16,1 km/h (3 Bft) 95,74 %
02.10.2022 05:22 13,8 C 12,8 C 9,4 C 96 % 1015,4 hPa 0,2 l/m 0 min 2 min 0 W/m 12,9 km/h (3 Bft) 95,74 %
02.10.2022 05:24 13,8 C 12,8 C 9,4 C 96 % 1015,5 hPa 0,2 l/m 0 min 2 min 0 W/m 6,4 km/h (2 Bft) 97,87 %
02.10.2022 05:26 13,9 C 12,8 C 9,4 C 96 % 1015,6 hPa 0,4 l/m 0 min 2 min 0 W/m 16,1 km/h (3 Bft) 97,87 %
02.10.2022 05:28 13,8 C 12,8 C 9,4 C 96 % 1015,6 hPa 1,2 l/m 0 min 2 min 0 W/m 16,1 km/h (3 Bft) 97,83 %
02.10.2022 05:30 13,8 C 12,2 C 9,4 C 96 % 1015,5 hPa 0,8 l/m 0 min 2 min 0 W/m 16,1 km/h (3 Bft) 97,87 %
02.10.2022 05:32 13,8 C 12,2 C 9,4 C 96 % 1015,5 hPa 0,6 l/m 0 min 2 min 0 W/m 16,1 km/h (3 Bft) 95,74 %
02.10.2022 05:34 13,8 C 12,2 C 9,4 C 96 % 1015,5 hPa 0,6 l/m 0 min 2 min 0 W/m 16,1 km/h (3 Bft) 97,87 %
02.10.2022 05:36 13,8 C 12,2 C 9,4 C 96 % 1015,4 hPa 0,2 l/m 0 min 2 min 0 W/m 6,4 km/h (2 Bft) 97,87 %
02.10.2022 05:38 13,8 C 12,2 C 9,4 C 96 % 1015,5 hPa 0,2 l/m 0 min 2 min 0 W/m 12,9 km/h (3 Bft) 95,74 %
02.10.2022 05:40 13,8 C 12,2 C 9,4 C 97 % 1015,5 hPa 0,0 l/m 0 min 2 min 0 W/m 16,1 km/h (3 Bft) 97,83 %
02.10.2022 05:42 13,8 C 12,2 C 9,4 C 97 % 1015,5 hPa 0,0 l/m 0 min 2 min 0 W/m 6,4 km/h (2 Bft) 97,87 %
02.10.2022 05:44 13,8 C 12,2 C 9,4 C 97 % 1015,5 hPa 0,0 l/m 0 min 0 min 0 W/m 12,9 km/h (3 Bft) 95,74 %
02.10.2022 05:46 13,8 C 12,2 C 9,4 C 97 % 1015,4 hPa 0,2 l/m 0 min 2 min 0 W/m 6,4 km/h (2 Bft) 97,87 %
02.10.2022 05:48 13,8 C 12,2 C 9,4 C 97 % 1015,4 hPa 0,0 l/m 0 min 0 min 0 W/m 16,1 km/h (3 Bft) 97,87 %
02.10.2022 05:50 13,8 C 12,2 C 9,4 C 97 % 1015,5 hPa 0,0 l/m 0 min 0 min 0 W/m 6,4 km/h (2 Bft) 95,74 %
02.10.2022 05:52 13,8 C 12,2 C 9,4 C 97 % 1015,4 hPa 0,0 l/m 0 min 0 min 0 W/m 9,7 km/h (2 Bft) 97,83 %
02.10.2022 05:54 13,7 C 12,2 C 9,4 C 97 % 1015,5 hPa 0,0 l/m 0 min 0 min 0 W/m 3,2 km/h (1 Bft) 97,87 %
02.10.2022 05:56 13,7 C 12,2 C 9,4 C 97 % 1015,6 hPa 0,0 l/m 0 min 0 min 0 W/m 3,2 km/h (1 Bft) 91,49 %
02.10.2022 05:58 13,7 C 12,2 C 9,4 C 97 % 1015,6 hPa 0,0 l/m 0 min 2 min 0 W/m 6,4 km/h (2 Bft) 97,87 %
02.10.2022 06:00 13,7 C 12,2 C 9,4 C 97 % 1015,6 hPa 0,0 l/m 0 min 2 min 0 W/m 6,4 km/h (2 Bft) 95,74 %
02.10.2022 06:02 13,7 C 12,2 C 9,4 C 97 % 1015,6 hPa 0,0 l/m 0 min 2 min 0 W/m 3,2 km/h (1 Bft) 95,74 %
02.10.2022 06:04 13,7 C 12,2 C 9,4 C 97 % 1015,6 hPa 0,4 l/m 0 min 2 min 0 W/m 9,7 km/h (2 Bft) 97,22 %
02.10.2022 06:08 13,7 C 12,2 C 9,4 C 97 % 1015,4 hPa 2,2 l/m 0 min 4 min 0 W/m 12,9 km/h (3 Bft) 97,98 %
02.10.2022 06:10 13,7 C 12,2 C 9,4 C 97 % 1015,4 hPa 0,4 l/m 0 min 2 min 0 W/m 6,4 km/h (2 Bft) 95,74 %
02.10.2022 06:12 13,6 C 12,2 C 9,4 C 97 % 1015,3 hPa 0,6 l/m 0 min 2 min 0 W/m 12,9 km/h (3 Bft) 95,74 %
02.10.2022 06:14 13,6 C 12,2 C 9,4 C 97 % 1015,4 hPa 1,0 l/m 0 min 2 min 0 W/m 16,1 km/h (3 Bft) 95,74 %
02.10.2022 06:16 13,6 C 12,2 C 9,4 C 97 % 1015,4 hPa 0,2 l/m 0 min 2 min 0 W/m 16,1 km/h (3 Bft) 97,56 %
02.10.2022 06:18 13,5 C 12,2 C 9,4 C 97 % 1015,4 hPa 0,2 l/m 0 min 2 min 0 W/m 16,1 km/h (3 Bft) 96,15 %
02.10.2022 06:20 13,4 C 12,2 C 9,4 C 97 % 1015,3 hPa 0,0 l/m 0 min 2 min 0 W/m 9,7 km/h (2 Bft) 95,74 %
02.10.2022 06:22 13,4 C 12,2 C 9,4 C 97 % 1015,4 hPa 0,0 l/m 0 min 0 min 0 W/m 6,4 km/h (2 Bft) 93,62 %
02.10.2022 06:24 13,4 C 12,2 C 9,4 C 97 % 1015,4 hPa 0,0 l/m 0 min 0 min 0 W/m 6,4 km/h (2 Bft) 95,74 %
02.10.2022 06:26 13,3 C 12,2 C 9,4 C 97 % 1015,4 hPa 0,0 l/m 0 min 0 min 0 W/m 6,4 km/h (2 Bft) 95,74 %
02.10.2022 06:28 13,3 C 12,2 C 9,4 C 97 % 1015,5 hPa 0,0 l/m 0 min 0 min 0 W/m 6,4 km/h (2 Bft) 95,65 %
02.10.2022 06:30 13,3 C 12,2 C 9,4 C 97 % 1015,5 hPa 0,0 l/m 0 min 2 min 0 W/m 9,7 km/h (2 Bft) 95,74 %
02.10.2022 06:32 13,3 C 12,2 C 9,4 C 97 % 1015,6 hPa 0,0 l/m 0 min 2 min 0 W/m 6,4 km/h (2 Bft) 95,12 %
02.10.2022 06:34 13,3 C 12,2 C 9,4 C 97 % 1015,6 hPa 0,0 l/m 0 min 2 min 0 W/m 6,4 km/h (2 Bft) 95,74 %
02.10.2022 06:36 13,3 C 12,2 C 9,4 C 97 % 1015,5 hPa 0,2 l/m 0 min 2 min 0 W/m 12,9 km/h (3 Bft) 93,75 %
02.10.2022 06:38 13,4 C 12,2 C 9,4 C 97 % 1015,6 hPa 0,2 l/m 0 min 2 min 0 W/m 3,2 km/h (1 Bft) 97,22 %
02.10.2022 06:40 13,4 C 12,2 C 9,4 C 97 % 1015,6 hPa 0,0 l/m 0 min 2 min 0 W/m 9,7 km/h (2 Bft) 95,65 %
02.10.2022 06:42 13,4 C 12,2 C 9,4 C 97 % 1015,7 hPa 0,2 l/m 0 min 2 min 0 W/m 6,4 km/h (2 Bft) 95,74 %
02.10.2022 06:44 13,4 C 12,2 C 9,4 C 98 % 1015,7 hPa 0,4 l/m 0 min 2 min 0 W/m 6,4 km/h (2 Bft) 95,74 %
02.10.2022 06:46 13,4 C 12,2 C 9,4 C 98 % 1015,7 hPa 0,6 l/m 0 min 2 min 0 W/m 6,4 km/h (2 Bft) 97,56 %
02.10.2022 06:48 13,4 C 12,2 C 9,4 C 98 % 1015,7 hPa 0,0 l/m 0 min 2 min 0 W/m 9,7 km/h (2 Bft) 97,87 %
02.10.2022 06:50 13,4 C 12,2 C 9,4 C 98 % 1015,7 hPa 0,2 l/m 0 min 2 min 0 W/m 6,4 km/h (2 Bft) 97,87 %
02.10.2022 06:52 13,4 C 12,2 C 9,4 C 98 % 1015,8 hPa 0,4 l/m 0 min 2 min 0 W/m 6,4 km/h (2 Bft) 97,83 %
02.10.2022 06:54 13,4 C 12,2 C 9,4 C 98 % 1015,8 hPa 0,4 l/m 0 min 2 min 0 W/m 6,4 km/h (2 Bft) 95,74 %
02.10.2022 06:56 13,4 C 12,2 C 9,4 C 98 % 1015,8 hPa 0,4 l/m 0 min 2 min 0 W/m 3,2 km/h (1 Bft) 100,00 %
02.10.2022 06:58 13,4 C 12,2 C 9,4 C 98 % 1015,7 hPa 0,2 l/m 0 min 2 min 0 W/m 3,2 km/h (1 Bft) 95,74 %
02.10.2022 07:00 13,4 C 12,2 C 9,4 C 98 % 1015,7 hPa 0,0 l/m 0 min 2 min 0 W/m 6,4 km/h (2 Bft) 97,87 %
02.10.2022 07:02 13,4 C 12,2 C 9,4 C 98 % 1015,6 hPa 0,4 l/m 0 min 2 min 0 W/m 6,4 km/h (2 Bft) 93,62 %
02.10.2022 07:04 13,4 C 12,2 C 9,4 C 98 % 1015,6 hPa 0,0 l/m 0 min 2 min 0 W/m 6,4 km/h (2 Bft) 97,87 %
02.10.2022 07:06 13,3 C 12,2 C 9,4 C 98 % 1015,6 hPa 0,4 l/m 0 min 2 min 0 W/m 9,7 km/h (2 Bft) 95,74 %
02.10.2022 07:08 13,3 C 12,2 C 9,4 C 98 % 1015,6 hPa 0,0 l/m 0 min 2 min 0 W/m 9,7 km/h (2 Bft) 97,87 %
02.10.2022 07:10 13,3 C 12,2 C 9,4 C 98 % 1015,7 hPa 0,0 l/m 0 min 2 min 0 W/m 12,9 km/h (3 Bft) 100,00 %
02.10.2022 07:12 13,2 C 12,2 C 9,4 C 98 % 1015,6 hPa 0,0 l/m 0 min 0 min 0 W/m 12,9 km/h (3 Bft) 100,00 %
02.10.2022 07:14 13,2 C 12,2 C 9,4 C 98 % 1015,8 hPa 0,0 l/m 0 min 2 min 0 W/m 19,3 km/h (3 Bft) 100,00 %
02.10.2022 07:16 13,2 C 12,2 C 9,4 C 98 % 1015,7 hPa 0,0 l/m 0 min 2 min 0 W/m 16,1 km/h (3 Bft) 97,83 %
02.10.2022 07:18 13,2 C 12,2 C 9,4 C 98 % 1015,7 hPa 0,0 l/m 0 min 0 min 0 W/m 12,9 km/h (3 Bft) 100,00 %
02.10.2022 07:20 13,2 C 12,2 C 9,4 C 98 % 1015,7 hPa 0,0 l/m 0 min 0 min 0 W/m 6,4 km/h (2 Bft) 100,00 %
02.10.2022 07:22 13,1 C 12,2 C 9,4 C 98 % 1015,8 hPa 0,0 l/m 0 min 2 min 0 W/m 3,2 km/h (1 Bft) 100,00 %
02.10.2022 07:24 13,1 C 12,2 C 9,4 C 98 % 1015,9 hPa 0,0 l/m 0 min 0 min 0 W/m 6,4 km/h (2 Bft) 100,00 %
02.10.2022 07:26 13,1 C 12,2 C 9,4 C 98 % 1015,9 hPa 0,0 l/m 0 min 0 min 0 W/m 6,4 km/h (2 Bft) 100,00 %
02.10.2022 07:28 13,1 C 12,2 C 9,4 C 98 % 1015,9 hPa 0,0 l/m 0 min 0 min 0 W/m 6,4 km/h (2 Bft) 100,00 %
02.10.2022 07:30 13,1 C 12,2 C 9,4 C 98 % 1015,9 hPa 0,0 l/m 0 min 0 min 0 W/m 3,2 km/h (1 Bft) 100,00 %
02.10.2022 07:32 13,1 C 12,2 C 9,4 C 98 % 1015,9 hPa 0,0 l/m 0 min 0 min 0 W/m 3,2 km/h (1 Bft) 100,00 %
02.10.2022 07:34 13,1 C 12,2 C 9,4 C 98 % 1015,9 hPa 0,0 l/m 0 min 0 min 0 W/m 3,2 km/h (1 Bft) 100,00 %
02.10.2022 07:36 13,1 C 12,2 C 9,4 C 98 % 1015,8 hPa 0,0 l/m 0 min 0 min 0 W/m 6,4 km/h (2 Bft) 100,00 %
02.10.2022 07:38 13,1 C 12,2 C 9,4 C 98 % 1015,8 hPa 0,0 l/m 0 min 0 min 0 W/m 6,4 km/h (2 Bft) 100,00 %
02.10.2022 07:40 13,1 C 12,2 C 9,4 C 98 % 1015,8 hPa 0,0 l/m 0 min 0 min 0 W/m 6,4 km/h (2 Bft) 100,00 %
02.10.2022 07:42 13,1 C 12,2 C 9,4 C 98 % 1015,8 hPa 0,0 l/m 0 min 0 min 0 W/m 9,7 km/h (2 Bft) 100,00 %
02.10.2022 07:44 13,1 C 12,2 C 9,4 C 98 % 1015,8 hPa 0,0 l/m 0 min 0 min 5 W/m 9,7 km/h (2 Bft) 100,00 %
02.10.2022 07:46 13,1 C 12,2 C 9,4 C 98 % 1015,9 hPa 0,0 l/m 0 min 0 min 5 W/m 12,9 km/h (3 Bft) 100,00 %
02.10.2022 07:48 13,1 C 12,2 C 9,4 C 98 % 1015,8 hPa 0,0 l/m 0 min 0 min 6 W/m 6,4 km/h (2 Bft) 97,87 %
02.10.2022 07:50 13,1 C 12,2 C 9,4 C 98 % 1015,9 hPa 0,0 l/m 0 min 0 min 7 W/m 6,4 km/h (2 Bft) 100,00 %
02.10.2022 07:52 13,2 C 12,2 C 9,4 C 98 % 1015,9 hPa 0,0 l/m 0 min 0 min 7 W/m 6,4 km/h (2 Bft) 100,00 %
02.10.2022 07:54 13,2 C 12,2 C 9,4 C 98 % 1015,9 hPa 0,0 l/m 0 min 0 min 9 W/m 6,4 km/h (2 Bft) 100,00 %
02.10.2022 07:56 13,2 C 12,2 C 9,4 C 98 % 1015,9 hPa 0,0 l/m 0 min 0 min 12 W/m 9,7 km/h (2 Bft) 100,00 %
02.10.2022 07:58 13,3 C 12,2 C 9,4 C 98 % 1015,9 hPa 0,0 l/m 0 min 0 min 13 W/m 12,9 km/h (3 Bft) 100,00 %
02.10.2022 08:00 13,3 C 12,2 C 9,4 C 98 % 1016,0 hPa 0,0 l/m 0 min 0 min 14 W/m 16,1 km/h (3 Bft) 97,87 %
02.10.2022 08:02 13,3 C 12,2 C 9,4 C 98 % 1016,0 hPa 0,0 l/m 0 min 0 min 11 W/m 12,9 km/h (3 Bft) 100,00 %
02.10.2022 08:04 13,3 C 12,2 C 9,4 C 98 % 1016,1 hPa 0,0 l/m 0 min 0 min 10 W/m 6,4 km/h (2 Bft) 100,00 %
02.10.2022 08:06 13,3 C 12,2 C 9,4 C 98 % 1016,2 hPa 0,0 l/m 0 min 0 min 10 W/m 6,4 km/h (2 Bft) 100,00 %
02.10.2022 08:08 13,4 C 12,2 C 9,4 C 98 % 1016,2 hPa 0,0 l/m 0 min 0 min 11 W/m 6,4 km/h (2 Bft) 95,74 %
02.10.2022 08:10 13,4 C 12,2 C 9,4 C 98 % 1016,2 hPa 0,0 l/m 0 min 0 min 11 W/m 6,4 km/h (2 Bft) 95,74 %
02.10.2022 08:12 13,4 C 12,8 C 9,4 C 98 % 1016,3 hPa 0,0 l/m 0 min 0 min 11 W/m 6,4 km/h (2 Bft) 95,74 %
02.10.2022 08:14 13,4 C 12,8 C 10,0 C 98 % 1016,3 hPa 0,0 l/m 0 min 0 min 11 W/m 9,7 km/h (2 Bft) 95,65 %
02.10.2022 08:16 13,4 C 12,8 C 10,0 C 98 % 1016,2 hPa 0,0 l/m 0 min 0 min 11 W/m 6,4 km/h (2 Bft) 93,62 %
02.10.2022 08:18 13,4 C 12,8 C 10,0 C 98 % 1016,2 hPa 0,0 l/m 0 min 0 min 11 W/m 3,2 km/h (1 Bft) 93,62 %
02.10.2022 08:20 13,4 C 12,8 C 10,0 C 98 % 1016,3 hPa 0,0 l/m 0 min 0 min 14 W/m 3,2 km/h (1 Bft) 95,74 %
02.10.2022 08:22 13,4 C 12,8 C 10,0 C 98 % 1016,3 hPa 0,0 l/m 0 min 0 min 18 W/m 6,4 km/h (2 Bft) 95,74 %
02.10.2022 08:24 13,5 C 12,8 C 10,0 C 98 % 1016,3 hPa 0,0 l/m 0 min 0 min 20 W/m 19,3 km/h (3 Bft) 95,74 %
02.10.2022 08:26 13,5 C 12,8 C 10,0 C 98 % 1016,3 hPa 0,0 l/m 0 min 0 min 23 W/m 16,1 km/h (3 Bft) 95,65 %
02.10.2022 08:28 13,5 C 12,8 C 10,0 C 98 % 1016,3 hPa 0,0 l/m 0 min 0 min 28 W/m 9,7 km/h (2 Bft) 93,62 %
02.10.2022 08:30 13,5 C 12,8 C 10,0 C 98 % 1016,3 hPa 0,0 l/m 0 min 0 min 33 W/m 9,7 km/h (2 Bft) 95,74 %
02.10.2022 08:32 13,5 C 12,8 C 10,0 C 98 % 1016,3 hPa 0,0 l/m 0 min 0 min 32 W/m 12,9 km/h (3 Bft) 95,74 %
02.10.2022 08:34 13,6 C 12,8 C 10,0 C 98 % 1016,3 hPa 0,0 l/m 0 min 0 min 32 W/m 12,9 km/h (3 Bft) 93,62 %
02.10.2022 08:36 13,6 C 12,8 C 10,0 C 98 % 1016,3 hPa 0,0 l/m 0 min 0 min 27 W/m 9,7 km/h (2 Bft) 95,74 %
02.10.2022 08:38 13,6 C 12,8 C 10,0 C 98 % 1016,2 hPa 0,0 l/m 0 min 0 min 24 W/m 12,9 km/h (3 Bft) 95,65 %
02.10.2022 08:40 13,6 C 12,8 C 10,0 C 98 % 1016,3 hPa 0,0 l/m 0 min 0 min 19 W/m 3,2 km/h (1 Bft) 97,87 %
02.10.2022 08:42 13,6 C 12,8 C 10,0 C 98 % 1016,4 hPa 0,0 l/m 0 min 0 min 21 W/m 9,7 km/h (2 Bft) 97,87 %
02.10.2022 08:44 13,6 C 12,8 C 10,0 C 98 % 1016,4 hPa 0,0 l/m 0 min 0 min 25 W/m 6,4 km/h (2 Bft) 97,87 %
02.10.2022 08:46 13,6 C 12,8 C 10,0 C 98 % 1016,4 hPa 0,0 l/m 0 min 0 min 31 W/m 6,4 km/h (2 Bft) 97,87 %
02.10.2022 08:48 13,6 C 12,8 C 10,0 C 98 % 1016,5 hPa 0,0 l/m 0 min 0 min 26 W/m 3,2 km/h (1 Bft) 97,87 %
02.10.2022 08:50 13,6 C 12,8 C 10,0 C 98 % 1016,5 hPa 0,0 l/m 0 min 0 min 22 W/m 6,4 km/h (2 Bft) 95,65 %
02.10.2022 08:52 13,6 C 12,8 C 10,0 C 98 % 1016,6 hPa 0,0 l/m 0 min 0 min 16 W/m 6,4 km/h (2 Bft) 95,74 %
02.10.2022 08:54 13,6 C 12,8 C 10,0 C 98 % 1016,6 hPa 0,0 l/m 0 min 0 min 13 W/m 6,4 km/h (2 Bft) 100,00 %
02.10.2022 08:56 13,6 C 12,8 C 10,0 C 98 % 1016,6 hPa 0,0 l/m 0 min 0 min 16 W/m 3,2 km/h (1 Bft) 97,87 %
02.10.2022 08:58 13,6 C 12,8 C 10,0 C 98 % 1016,6 hPa 0,0 l/m 0 min 0 min 31 W/m 6,4 km/h (2 Bft) 100,00 %
02.10.2022 09:00 13,6 C 12,8 C 10,0 C 98 % 1016,6 hPa 0,0 l/m 0 min 0 min 38 W/m 6,4 km/h (2 Bft) 95,74 %
02.10.2022 09:02 13,6 C 12,8 C 10,0 C 98 % 1016,6 hPa 0,0 l/m 0 min 0 min 39 W/m 6,4 km/h (2 Bft) 97,83 %
02.10.2022 09:04 13,6 C 12,8 C 10,0 C 98 % 1016,6 hPa 0,0 l/m 0 min 0 min 40 W/m 3,2 km/h (1 Bft) 100,00 %
02.10.2022 09:06 13,6 C 12,8 C 10,0 C 98 % 1016,6 hPa 0,0 l/m 0 min 0 min 32 W/m 6,4 km/h (2 Bft) 97,87 %
02.10.2022 09:08 13,6 C 12,8 C 10,0 C 98 % 1016,6 hPa 0,0 l/m 0 min 0 min 25 W/m 6,4 km/h (2 Bft) 97,87 %
02.10.2022 09:10 13,6 C 12,8 C 10,0 C 98 % 1016,5 hPa 0,0 l/m 0 min 0 min 23 W/m 6,4 km/h (2 Bft) 95,74 %
02.10.2022 09:12 13,6 C 12,8 C 10,0 C 98 % 1016,5 hPa 0,0 l/m 0 min 0 min 23 W/m 12,9 km/h (3 Bft) 97,83 %
02.10.2022 09:14 13,6 C 12,8 C 10,0 C 99 % 1016,5 hPa 0,0 l/m 0 min 0 min 25 W/m 6,4 km/h (2 Bft) 98,18 %
02.10.2022 09:16 13,6 C 12,8 C 10,0 C 99 % 1016,5 hPa 0,0 l/m 0 min 0 min 26 W/m 9,7 km/h (2 Bft) 97,87 %
02.10.2022 09:18 13,6 C 12,8 C 10,0 C 99 % 1016,5 hPa 0,0 l/m 0 min 0 min 24 W/m 6,4 km/h (2 Bft) 97,87 %
02.10.2022 09:20 13,6 C 12,8 C 10,0 C 99 % 1016,6 hPa 0,0 l/m 0 min 0 min 31 W/m 9,7 km/h (2 Bft) 97,87 %
02.10.2022 09:22 13,7 C 12,8 C 10,0 C 99 % 1016,7 hPa 0,0 l/m 0 min 0 min 50 W/m 6,4 km/h (2 Bft) 97,83 %
02.10.2022 09:24 13,6 C 12,8 C 10,0 C 99 % 1016,7 hPa 0,0 l/m 0 min 0 min 69 W/m 12,9 km/h (3 Bft) 97,87 %
02.10.2022 09:26 13,7 C 12,8 C 10,0 C 99 % 1016,7 hPa 0,0 l/m 0 min 0 min 76 W/m 6,4 km/h (2 Bft) 95,74 %
02.10.2022 09:28 13,7 C 12,8 C 10,0 C 99 % 1016,8 hPa 0,0 l/m 0 min 0 min 71 W/m 3,2 km/h (1 Bft) 97,87 %
02.10.2022 09:30 13,7 C 13,3 C 10,0 C 99 % 1016,8 hPa 0,0 l/m 0 min 0 min 70 W/m 12,9 km/h (3 Bft) 97,87 %
02.10.2022 09:32 13,7 C 13,3 C 10,0 C 99 % 1016,9 hPa 0,0 l/m 0 min 0 min 71 W/m 12,9 km/h (3 Bft) 93,62 %
02.10.2022 09:34 13,7 C 13,3 C 10,0 C 99 % 1016,9 hPa 0,0 l/m 0 min 0 min 86 W/m 6,4 km/h (2 Bft) 97,83 %
02.10.2022 09:36 13,7 C 13,3 C 10,0 C 99 % 1016,8 hPa 0,0 l/m 0 min 0 min 93 W/m 6,4 km/h (2 Bft) 97,87 %
02.10.2022 09:38 13,8 C 13,3 C 10,0 C 99 % 1016,8 hPa 0,0 l/m 0 min 0 min 100 W/m 6,4 km/h (2 Bft) 95,74 %
02.10.2022 09:40 13,8 C 13,3 C 10,6 C 98 % 1016,9 hPa 0,0 l/m 0 min 0 min 104 W/m 9,7 km/h (2 Bft) 97,87 %
02.10.2022 09:42 13,8 C 13,3 C 10,6 C 98 % 1017,0 hPa 0,0 l/m 0 min 0 min 97 W/m 6,4 km/h (2 Bft) 97,87 %
02.10.2022 09:44 13,8 C 13,3 C 10,6 C 98 % 1016,9 hPa 0,0 l/m 0 min 0 min 97 W/m 6,4 km/h (2 Bft) 97,87 %
02.10.2022 09:46 13,8 C 13,3 C 10,6 C 98 % 1016,9 hPa 0,0 l/m 0 min 0 min 95 W/m 16,1 km/h (3 Bft) 95,65 %
02.10.2022 09:48 13,8 C 13,3 C 10,6 C 98 % 1016,9 hPa 0,0 l/m 0 min 0 min 84 W/m 16,1 km/h (3 Bft) 97,87 %
02.10.2022 09:50 13,8 C 13,3 C 10,6 C 98 % 1016,9 hPa 0,0 l/m 0 min 0 min 81 W/m 6,4 km/h (2 Bft) 97,87 %
02.10.2022 09:52 13,8 C 13,3 C 10,6 C 98 % 1016,9 hPa 0,0 l/m 0 min 0 min 72 W/m 16,1 km/h (3 Bft) 93,62 %
02.10.2022 09:54 13,8 C 13,3 C 10,6 C 98 % 1017,0 hPa 0,0 l/m 0 min 0 min 86 W/m 16,1 km/h (3 Bft) 97,87 %
02.10.2022 09:56 13,8 C 13,3 C 10,6 C 98 % 1017,0 hPa 0,0 l/m 0 min 0 min 98 W/m 16,1 km/h (3 Bft) 100,00 %
02.10.2022 09:58 13,8 C 13,3 C 10,6 C 98 % 1017,1 hPa 0,0 l/m 0 min 0 min 103 W/m 6,4 km/h (2 Bft) 97,83 %
02.10.2022 10:00 13,9 C 13,3 C 10,6 C 98 % 1017,1 hPa 0,0 l/m 0 min 0 min 98 W/m 3,2 km/h (1 Bft) 100,00 %
02.10.2022 10:02 13,9 C 13,3 C 10,6 C 98 % 1017,1 hPa 0,0 l/m 0 min 0 min 90 W/m 12,9 km/h (3 Bft) 97,87 %
02.10.2022 10:04 13,9 C 13,3 C 10,6 C 98 % 1017,1 hPa 0,0 l/m 0 min 0 min 96 W/m 12,9 km/h (3 Bft) 97,87 %
02.10.2022 10:06 13,9 C 13,3 C 10,6 C 98 % 1017,2 hPa 0,0 l/m 0 min 0 min 91 W/m 6,4 km/h (2 Bft) 97,87 %
02.10.2022 10:08 13,9 C 13,3 C 10,6 C 99 % 1017,2 hPa 0,0 l/m 0 min 0 min 82 W/m 6,4 km/h (2 Bft) 97,87 %
02.10.2022 10:10 13,9 C 13,3 C 10,6 C 99 % 1017,2 hPa 0,0 l/m 0 min 0 min 73 W/m 3,2 km/h (1 Bft) 97,96 %
02.10.2022 10:12 13,9 C 13,3 C 10,6 C 98 % 1017,3 hPa 0,0 l/m 0 min 0 min 71 W/m 9,7 km/h (2 Bft) 97,87 %
02.10.2022 10:14 13,9 C 13,3 C 10,6 C 98 % 1017,3 hPa 0,0 l/m 0 min 0 min 70 W/m 9,7 km/h (2 Bft) 95,74 %
02.10.2022 10:16 13,9 C 13,3 C 10,6 C 98 % 1017,3 hPa 0,0 l/m 0 min 0 min 79 W/m 6,4 km/h (2 Bft) 97,87 %
02.10.2022 10:18 13,9 C 13,3 C 10,6 C 98 % 1017,3 hPa 0,0 l/m 0 min 0 min 79 W/m 9,7 km/h (2 Bft) 97,83 %
02.10.2022 10:20 13,9 C 13,3 C 10,6 C 98 % 1017,2 hPa 0,0 l/m 0 min 0 min 78 W/m 6,4 km/h (2 Bft) 95,74 %
02.10.2022 10:22 13,9 C 13,3 C 10,6 C 98 % 1017,2 hPa 0,0 l/m 0 min 0 min 85 W/m 6,4 km/h (2 Bft) 97,87 %
02.10.2022 10:24 13,9 C 13,3 C 10,6 C 98 % 1017,2 hPa 0,0 l/m 0 min 0 min 95 W/m 12,9 km/h (3 Bft) 97,87 %
02.10.2022 10:26 13,9 C 13,3 C 10,6 C 98 % 1017,3 hPa 0,0 l/m 0 min 0 min 93 W/m 12,9 km/h (3 Bft) 97,87 %
02.10.2022 10:28 13,9 C 13,3 C 10,6 C 98 % 1017,3 hPa 0,0 l/m 0 min 0 min 86 W/m 9,7 km/h (2 Bft) 97,87 %
02.10.2022 10:30 13,9 C 13,3 C 10,6 C 98 % 1017,4 hPa 0,0 l/m 0 min 0 min 86 W/m 6,4 km/h (2 Bft) 95,74 %
02.10.2022 10:32 13,9 C 13,3 C 10,6 C 98 % 1017,3 hPa 0,0 l/m 0 min 0 min 92 W/m 6,4 km/h (2 Bft) 97,83 %
02.10.2022 10:34 13,9 C 13,9 C 10,6 C 98 % 1017,3 hPa 0,0 l/m 0 min 0 min 113 W/m 6,4 km/h (2 Bft) 97,87 %
02.10.2022 10:36 14,0 C 13,9 C 10,6 C 98 % 1017,3 hPa 0,0 l/m 0 min 0 min 124 W/m 6,4 km/h (2 Bft) 97,87 %
02.10.2022 10:38 14,0 C 13,9 C 10,6 C 98 % 1017,3 hPa 0,0 l/m 0 min 0 min 133 W/m 12,9 km/h (3 Bft) 100,00 %
02.10.2022 10:40 14,1 C 13,9 C 10,6 C 98 % 1017,4 hPa 0,0 l/m 0 min 0 min 130 W/m 9,7 km/h (2 Bft) 100,00 %
02.10.2022 10:42 14,1 C 13,9 C 10,6 C 98 % 1017,4 hPa 0,0 l/m 0 min 0 min 116 W/m 12,9 km/h (3 Bft) 100,00 %
02.10.2022 10:44 14,1 C 13,9 C 10,6 C 98 % 1017,4 hPa 0,0 l/m 0 min 0 min 105 W/m 9,7 km/h (2 Bft) 100,00 %
02.10.2022 10:46 14,1 C 13,9 C 10,6 C 98 % 1017,4 hPa 0,0 l/m 0 min 0 min 101 W/m 12,9 km/h (3 Bft) 100,00 %
02.10.2022 10:48 14,1 C 13,9 C 10,6 C 98 % 1017,5 hPa 0,0 l/m 0 min 0 min 104 W/m 16,1 km/h (3 Bft) 97,87 %
02.10.2022 10:50 14,1 C 13,9 C 10,6 C 98 % 1017,4 hPa 0,0 l/m 0 min 0 min 130 W/m 12,9 km/h (3 Bft) 100,00 %
02.10.2022 10:52 14,1 C 13,9 C 10,6 C 98 % 1017,5 hPa 0,0 l/m 0 min 0 min 137 W/m 16,1 km/h (3 Bft) 100,00 %
02.10.2022 10:54 14,1 C 13,9 C 10,6 C 98 % 1017,5 hPa 0,0 l/m 0 min 0 min 131 W/m 16,1 km/h (3 Bft) 97,87 %
02.10.2022 10:56 14,1 C 13,9 C 10,6 C 98 % 1017,6 hPa 0,0 l/m 0 min 0 min 134 W/m 19,3 km/h (3 Bft) 97,87 %
02.10.2022 10:58 14,1 C 13,9 C 10,6 C 98 % 1017,6 hPa 0,0 l/m 0 min 0 min 125 W/m 12,9 km/h (3 Bft) 97,83 %
02.10.2022 11:00 14,1 C 13,3 C 10,6 C 98 % 1017,5 hPa 0,0 l/m 0 min 0 min 119 W/m 16,1 km/h (3 Bft) 97,96 %
02.10.2022 11:02 14,1 C 13,9 C 10,6 C 98 % 1017,6 hPa 0,0 l/m 0 min 2 min 120 W/m 9,7 km/h (2 Bft) 97,87 %
02.10.2022 11:04 14,1 C 13,9 C 10,6 C 98 % 1017,6 hPa 0,0 l/m 0 min 2 min 121 W/m 12,9 km/h (3 Bft) 97,87 %
02.10.2022 11:06 14,1 C 13,9 C 10,6 C 98 % 1017,6 hPa 0,0 l/m 0 min 2 min 131 W/m 9,7 km/h (2 Bft) 94,83 %
02.10.2022 11:08 14,1 C 13,9 C 10,6 C 98 % 1017,6 hPa 0,0 l/m 0 min 0 min 151 W/m 22,5 km/h (4 Bft) 100,00 %
02.10.2022 11:10 14,1 C 13,9 C 10,6 C 98 % 1017,6 hPa 0,0 l/m 0 min 0 min 163 W/m 12,9 km/h (3 Bft) 95,65 %
02.10.2022 11:12 14,2 C 13,9 C 10,6 C 98 % 1017,6 hPa 0,0 l/m 0 min 0 min 182 W/m 9,7 km/h (2 Bft) 97,87 %
02.10.2022 11:14 14,2 C 13,9 C 10,6 C 98 % 1017,6 hPa 0,0 l/m 0 min 0 min 200 W/m 12,9 km/h (3 Bft) 97,87 %
02.10.2022 11:16 14,2 C 13,9 C 10,6 C 98 % 1017,6 hPa 0,0 l/m 0 min 0 min 208 W/m 6,4 km/h (2 Bft) 95,74 %
02.10.2022 11:18 14,2 C 13,9 C 10,6 C 98 % 1017,7 hPa 0,0 l/m 0 min 0 min 202 W/m 9,7 km/h (2 Bft) 97,87 %
02.10.2022 11:20 14,2 C 13,9 C 10,6 C 98 % 1017,7 hPa 0,0 l/m 0 min 0 min 194 W/m 12,9 km/h (3 Bft) 97,87 %
02.10.2022 11:22 14,3 C 13,9 C 10,6 C 98 % 1017,6 hPa 0,0 l/m 0 min 0 min 203 W/m 12,9 km/h (3 Bft) 97,83 %
02.10.2022 11:24 14,3 C 14,4 C 10,6 C 98 % 1017,6 hPa 0,0 l/m 0 min 0 min 224 W/m 12,9 km/h (3 Bft) 97,87 %
02.10.2022 11:26 14,3 C 14,4 C 11,1 C 98 % 1017,6 hPa 0,0 l/m 0 min 0 min 244 W/m 6,4 km/h (2 Bft) 97,87 %
02.10.2022 11:28 14,3 C 14,4 C 11,1 C 98 % 1017,7 hPa 0,0 l/m 2 min 0 min 264 W/m 16,1 km/h (3 Bft) 95,74 %
02.10.2022 11:30 14,3 C 14,4 C 11,1 C 98 % 1017,7 hPa 0,0 l/m 2 min 0 min 277 W/m 12,9 km/h (3 Bft) 97,87 %
02.10.2022 11:32 14,3 C 14,4 C 11,1 C 98 % 1017,7 hPa 0,0 l/m 2 min 0 min 262 W/m 16,1 km/h (3 Bft) 97,83 %
02.10.2022 11:34 14,3 C 14,4 C 11,1 C 98 % 1017,7 hPa 0,0 l/m 0 min 0 min 241 W/m 6,4 km/h (2 Bft) 97,87 %
02.10.2022 11:36 14,3 C 14,4 C 11,1 C 98 % 1017,7 hPa 0,0 l/m 0 min 0 min 225 W/m 9,7 km/h (2 Bft) 98,31 %
02.10.2022 11:38 14,3 C 14,4 C 11,1 C 98 % 1017,7 hPa 0,0 l/m 0 min 0 min 233 W/m 19,3 km/h (3 Bft) 97,14 %
02.10.2022 11:40 14,3 C 14,4 C 11,1 C 98 % 1017,7 hPa 0,0 l/m 2 min 0 min 257 W/m 3,2 km/h (1 Bft) 97,92 %
02.10.2022 11:42 14,3 C 15,0 C 11,1 C 98 % 1017,7 hPa 0,0 l/m 2 min 0 min 268 W/m 12,9 km/h (3 Bft) 100,00 %
02.10.2022 11:44 14,4 C 15,0 C 11,1 C 98 % 1017,7 hPa 0,0 l/m 2 min 0 min 257 W/m 12,9 km/h (3 Bft) 100,00 %
02.10.2022 11:46 14,4 C 15,0 C 11,1 C 98 % 1017,7 hPa 0,0 l/m 0 min 0 min 223 W/m 6,4 km/h (2 Bft) 97,87 %
02.10.2022 11:48 14,5 C 15,0 C 11,1 C 98 % 1017,8 hPa 0,0 l/m 0 min 0 min 208 W/m 6,4 km/h (2 Bft) 100,00 %
02.10.2022 11:50 14,5 C 15,0 C 11,1 C 98 % 1017,8 hPa 0,0 l/m 0 min 0 min 193 W/m 6,4 km/h (2 Bft) 100,00 %
02.10.2022 11:52 14,6 C 15,0 C 11,1 C 97 % 1017,8 hPa 0,0 l/m 0 min 0 min 179 W/m 6,4 km/h (2 Bft) 100,00 %
02.10.2022 11:54 14,6 C 15,0 C 11,1 C 98 % 1017,8 hPa 0,0 l/m 0 min 0 min 164 W/m 9,7 km/h (2 Bft) 93,62 %
02.10.2022 11:56 14,6 C 14,4 C 11,1 C 98 % 1017,9 hPa 0,0 l/m 0 min 0 min 149 W/m 12,9 km/h (3 Bft) 100,00 %
02.10.2022 11:58 14,6 C 14,4 C 11,1 C 97 % 1017,9 hPa 0,0 l/m 0 min 0 min 167 W/m 6,4 km/h (2 Bft) 100,00 %
02.10.2022 12:00 14,6 C 15,0 C 11,1 C 97 % 1017,9 hPa 0,0 l/m 0 min 0 min 234 W/m 12,9 km/h (3 Bft) 97,87 %
02.10.2022 12:02 14,6 C 15,0 C 11,1 C 97 % 1017,9 hPa 0,0 l/m 0 min 0 min 235 W/m 16,1 km/h (3 Bft) 97,87 %
02.10.2022 12:04 14,6 C 15,0 C 11,1 C 97 % 1017,9 hPa 0,0 l/m 0 min 0 min 160 W/m 16,1 km/h (3 Bft) 95,74 %
02.10.2022 12:08 14,6 C 15,0 C 11,1 C 97 % 1017,9 hPa 0,0 l/m 0 min 0 min 172 W/m 16,1 km/h (3 Bft) 94,62 %
02.10.2022 12:10 14,7 C 15,0 C 11,1 C 97 % 1017,9 hPa 0,0 l/m 0 min 0 min 181 W/m 12,9 km/h (3 Bft) 93,62 %
02.10.2022 12:12 14,7 C 15,0 C 11,1 C 97 % 1017,9 hPa 0,0 l/m 0 min 0 min 222 W/m 12,9 km/h (3 Bft) 95,74 %
02.10.2022 12:14 14,7 C 15,6 C 11,1 C 97 % 1018,0 hPa 0,0 l/m 2 min 0 min 323 W/m 12,9 km/h (3 Bft) 95,74 %
02.10.2022 12:16 14,8 C 15,6 C 11,1 C 97 % 1018,0 hPa 0,0 l/m 2 min 0 min 307 W/m 12,9 km/h (3 Bft) 95,74 %
02.10.2022 12:18 14,8 C 15,6 C 11,1 C 97 % 1018,0 hPa 0,0 l/m 2 min 0 min 362 W/m 12,9 km/h (3 Bft) 95,74 %
02.10.2022 12:20 14,9 C 16,1 C 11,1 C 97 % 1018,1 hPa 0,0 l/m 2 min 0 min 330 W/m 9,7 km/h (2 Bft) 95,65 %
02.10.2022 12:22 15,0 C 16,1 C 11,1 C 96 % 1018,1 hPa 0,0 l/m 0 min 0 min 264 W/m 19,3 km/h (3 Bft) 93,62 %
02.10.2022 12:24 15,1 C 15,6 C 11,1 C 96 % 1018,1 hPa 0,0 l/m 0 min 0 min 235 W/m 16,1 km/h (3 Bft) 95,74 %
02.10.2022 12:26 15,1 C 15,6 C 11,1 C 96 % 1018,2 hPa 0,0 l/m 0 min 0 min 271 W/m 16,1 km/h (3 Bft) 95,74 %
02.10.2022 12:28 15,1 C 15,6 C 11,1 C 96 % 1018,1 hPa 0,0 l/m 0 min 0 min 253 W/m 12,9 km/h (3 Bft) 93,62 %
02.10.2022 12:30 15,2 C 15,6 C 11,1 C 96 % 1018,1 hPa 0,0 l/m 0 min 0 min 242 W/m 16,1 km/h (3 Bft) 95,74 %
02.10.2022 12:32 15,2 C 15,6 C 11,1 C 95 % 1018,1 hPa 0,0 l/m 0 min 0 min 266 W/m 19,3 km/h (3 Bft) 95,65 %
02.10.2022 12:34 15,2 C 15,6 C 11,1 C 95 % 1018,1 hPa 0,0 l/m 0 min 0 min 256 W/m 6,4 km/h (2 Bft) 95,74 %
02.10.2022 12:36 15,2 C 15,6 C 11,1 C 95 % 1018,2 hPa 0,0 l/m 0 min 0 min 220 W/m 12,9 km/h (3 Bft) 93,62 %
02.10.2022 12:38 15,2 C 15,6 C 11,1 C 95 % 1018,1 hPa 0,0 l/m 0 min 0 min 209 W/m 9,7 km/h (2 Bft) 95,74 %
02.10.2022 12:40 15,3 C 15,6 C 11,1 C 94 % 1018,1 hPa 0,0 l/m 0 min 0 min 197 W/m 9,7 km/h (2 Bft) 95,74 %
02.10.2022 12:42 15,3 C 15,6 C 11,1 C 94 % 1018,2 hPa 0,0 l/m 0 min 0 min 186 W/m 9,7 km/h (2 Bft) 93,48 %
02.10.2022 12:44 15,3 C 15,6 C 11,1 C 94 % 1018,2 hPa 0,0 l/m 0 min 0 min 187 W/m 9,7 km/h (2 Bft) 97,87 %
02.10.2022 12:46 15,4 C 15,6 C 11,1 C 94 % 1018,2 hPa 0,0 l/m 0 min 0 min 198 W/m 6,4 km/h (2 Bft) 97,87 %
02.10.2022 12:48 15,4 C 16,1 C 11,1 C 94 % 1018,2 hPa 0,0 l/m 0 min 0 min 174 W/m 6,4 km/h (2 Bft) 97,87 %
02.10.2022 12:50 15,6 C 16,1 C 11,1 C 94 % 1018,3 hPa 0,0 l/m 0 min 0 min 153 W/m 12,9 km/h (3 Bft) 97,87 %
02.10.2022 12:52 15,6 C 16,1 C 11,1 C 94 % 1018,3 hPa 0,0 l/m 0 min 0 min 170 W/m 25,7 km/h (4 Bft) 95,74 %
02.10.2022 12:54 15,7 C 16,1 C 11,1 C 93 % 1018,3 hPa 0,0 l/m 0 min 0 min 170 W/m 19,3 km/h (3 Bft) 97,83 %
02.10.2022 12:56 15,7 C 16,1 C 11,1 C 93 % 1018,4 hPa 0,0 l/m 0 min 0 min 161 W/m 16,1 km/h (3 Bft) 97,87 %
02.10.2022 12:58 15,8 C 16,1 C 11,1 C 92 % 1018,4 hPa 0,0 l/m 0 min 0 min 176 W/m 19,3 km/h (3 Bft) 100,00 %
02.10.2022 13:00 15,8 C 16,1 C 11,1 C 92 % 1018,5 hPa 0,0 l/m 0 min 0 min 139 W/m 12,9 km/h (3 Bft) 100,00 %
02.10.2022 13:02 15,8 C 16,1 C 11,1 C 92 % 1018,5 hPa 0,0 l/m 0 min 0 min 175 W/m 9,7 km/h (2 Bft) 95,74 %
02.10.2022 13:04 15,8 C 16,1 C 11,1 C 91 % 1018,5 hPa 0,0 l/m 0 min 0 min 198 W/m 19,3 km/h (3 Bft) 100,00 %
02.10.2022 13:06 15,8 C 16,1 C 11,1 C 91 % 1018,4 hPa 0,0 l/m 0 min 0 min 199 W/m 16,1 km/h (3 Bft) 100,00 %
02.10.2022 13:08 15,8 C 16,1 C 11,7 C 91 % 1018,4 hPa 0,0 l/m 0 min 0 min 173 W/m 9,7 km/h (2 Bft) 100,00 %
02.10.2022 13:10 15,9 C 16,1 C 11,7 C 90 % 1018,4 hPa 0,0 l/m 0 min 0 min 171 W/m 16,1 km/h (3 Bft) 100,00 %
02.10.2022 13:12 15,9 C 16,1 C 11,7 C 90 % 1018,4 hPa 0,0 l/m 0 min 0 min 213 W/m 19,3 km/h (3 Bft) 97,87 %
02.10.2022 13:14 15,9 C 16,1 C 11,7 C 90 % 1018,5 hPa 0,0 l/m 0 min 0 min 237 W/m 12,9 km/h (3 Bft) 97,87 %
02.10.2022 13:16 15,9 C 16,1 C 11,7 C 89 % 1018,5 hPa 0,0 l/m 0 min 0 min 221 W/m 12,9 km/h (3 Bft) 100,00 %
02.10.2022 13:18 15,9 C 16,1 C 12,2 C 89 % 1018,4 hPa 0,0 l/m 0 min 0 min 203 W/m 12,9 km/h (3 Bft) 100,00 %
02.10.2022 13:20 16,0 C 16,1 C 12,2 C 89 % 1018,4 hPa 0,0 l/m 0 min 0 min 222 W/m 16,1 km/h (3 Bft) 100,00 %
02.10.2022 13:22 15,9 C 16,1 C 12,2 C 88 % 1018,5 hPa 0,0 l/m 0 min 0 min 218 W/m 16,1 km/h (3 Bft) 100,00 %
02.10.2022 13:24 15,9 C 16,1 C 12,2 C 88 % 1018,5 hPa 0,0 l/m 0 min 0 min 212 W/m 16,1 km/h (3 Bft) 100,00 %
02.10.2022 13:26 15,9 C 16,1 C 12,2 C 87 % 1018,5 hPa 0,0 l/m 0 min 0 min 204 W/m 12,9 km/h (3 Bft) 100,00 %
02.10.2022 13:28 15,9 C 15,6 C 12,2 C 87 % 1018,5 hPa 0,0 l/m 0 min 0 min 190 W/m 12,9 km/h (3 Bft) 100,00 %
02.10.2022 13:30 15,9 C 16,1 C 12,2 C 88 % 1018,6 hPa 0,0 l/m 0 min 0 min 214 W/m 12,9 km/h (3 Bft) 97,87 %
02.10.2022 13:32 15,9 C 16,1 C 12,2 C 88 % 1018,6 hPa 0,0 l/m 0 min 0 min 222 W/m 9,7 km/h (2 Bft) 97,87 %
02.10.2022 13:34 16,0 C 16,1 C 12,2 C 87 % 1018,6 hPa 0,0 l/m 0 min 0 min 238 W/m 16,1 km/h (3 Bft) 97,87 %
02.10.2022 13:36 16,0 C 16,1 C 12,2 C 87 % 1018,7 hPa 0,0 l/m 0 min 0 min 241 W/m 12,9 km/h (3 Bft) 97,87 %
02.10.2022 13:38 16,1 C 16,1 C 12,2 C 87 % 1018,7 hPa 0,0 l/m 0 min 0 min 252 W/m 9,7 km/h (2 Bft) 95,74 %
02.10.2022 13:40 16,1 C 16,7 C 12,2 C 87 % 1018,7 hPa 0,0 l/m 0 min 0 min 271 W/m 16,1 km/h (3 Bft) 97,83 %
02.10.2022 13:42 16,1 C 16,7 C 12,2 C 87 % 1018,7 hPa 0,0 l/m 0 min 0 min 270 W/m 16,1 km/h (3 Bft) 97,87 %
02.10.2022 13:44 16,1 C 16,7 C 12,2 C 86 % 1018,6 hPa 0,0 l/m 2 min 0 min 293 W/m 12,9 km/h (3 Bft) 97,87 %
02.10.2022 13:46 16,2 C 16,7 C 12,2 C 86 % 1018,6 hPa 0,0 l/m 2 min 0 min 334 W/m 16,1 km/h (3 Bft) 93,62 %
02.10.2022 13:48 16,3 C 16,7 C 12,8 C 86 % 1018,6 hPa 0,0 l/m 2 min 0 min 355 W/m 12,9 km/h (3 Bft) 97,87 %
02.10.2022 13:50 16,4 C 17,2 C 12,8 C 86 % 1018,6 hPa 0,0 l/m 2 min 0 min 490 W/m 12,9 km/h (3 Bft) 97,87 %
02.10.2022 13:52 16,5 C 17,8 C 12,8 C 86 % 1018,6 hPa 0,0 l/m 2 min 0 min 534 W/m 22,5 km/h (4 Bft) 97,83 %
02.10.2022 13:54 16,6 C 17,2 C 12,8 C 85 % 1018,6 hPa 0,0 l/m 2 min 0 min 391 W/m 16,1 km/h (3 Bft) 97,87 %
02.10.2022 13:56 16,5 C 17,2 C 12,8 C 84 % 1018,7 hPa 0,0 l/m 2 min 0 min 336 W/m 19,3 km/h (3 Bft) 93,62 %
02.10.2022 13:58 16,6 C 17,8 C 12,8 C 84 % 1018,7 hPa 0,0 l/m 2 min 0 min 397 W/m 12,9 km/h (3 Bft) 95,74 %
02.10.2022 14:00 16,6 C 18,3 C 12,8 C 84 % 1018,8 hPa 0,0 l/m 2 min 0 min 464 W/m 16,1 km/h (3 Bft) 93,62 %
02.10.2022 14:02 16,7 C 18,3 C 12,8 C 84 % 1018,7 hPa 0,0 l/m 2 min 0 min 464 W/m 19,3 km/h (3 Bft) 95,74 %
02.10.2022 14:04 16,7 C 18,9 C 12,8 C 83 % 1018,8 hPa 0,0 l/m 2 min 0 min 471 W/m 12,9 km/h (3 Bft) 97,83 %
02.10.2022 14:06 16,8 C 18,9 C 12,8 C 83 % 1018,8 hPa 0,0 l/m 2 min 0 min 575 W/m 12,9 km/h (3 Bft) 97,87 %
02.10.2022 14:08 16,8 C 18,9 C 12,8 C 83 % 1018,8 hPa 0,0 l/m 2 min 0 min 564 W/m 16,1 km/h (3 Bft) 95,74 %
02.10.2022 14:10 16,9 C 18,9 C 12,8 C 82 % 1018,8 hPa 0,0 l/m 2 min 0 min 630 W/m 16,1 km/h (3 Bft) 95,74 %
02.10.2022 14:12 17,0 C 18,9 C 12,8 C 82 % 1018,7 hPa 0,0 l/m 2 min 0 min 633 W/m 16,1 km/h (3 Bft) 95,74 %
02.10.2022 14:14 17,1 C 18,9 C 12,8 C 81 % 1018,7 hPa 0,0 l/m 2 min 0 min 633 W/m 12,9 km/h (3 Bft) 97,87 %
02.10.2022 14:16 17,1 C 18,3 C 12,8 C 81 % 1018,7 hPa 0,0 l/m 2 min 0 min 333 W/m 12,9 km/h (3 Bft) 97,83 %
02.10.2022 14:18 17,1 C 18,3 C 12,8 C 81 % 1018,6 hPa 0,0 l/m 2 min 0 min 316 W/m 16,1 km/h (3 Bft) 97,87 %
02.10.2022 14:20 17,1 C 18,3 C 12,8 C 81 % 1018,6 hPa 0,0 l/m 2 min 0 min 467 W/m 16,1 km/h (3 Bft) 97,87 %
02.10.2022 14:22 17,1 C 18,9 C 12,8 C 82 % 1018,6 hPa 0,0 l/m 2 min 0 min 477 W/m 9,7 km/h (2 Bft) 95,74 %
02.10.2022 14:24 17,2 C 18,9 C 12,8 C 82 % 1018,6 hPa 0,0 l/m 2 min 0 min 497 W/m 12,9 km/h (3 Bft) 97,87 %
02.10.2022 14:26 17,2 C 18,9 C 12,8 C 82 % 1018,6 hPa 0,0 l/m 2 min 0 min 540 W/m 6,4 km/h (2 Bft) 95,74 %
02.10.2022 14:28 17,3 C 18,9 C 12,8 C 82 % 1018,6 hPa 0,0 l/m 2 min 0 min 528 W/m 12,9 km/h (3 Bft) 97,83 %
02.10.2022 14:30 17,4 C 18,9 C 13,3 C 82 % 1018,5 hPa 0,0 l/m 2 min 0 min 481 W/m 12,9 km/h (3 Bft) 97,87 %
02.10.2022 14:32 17,4 C 18,9 C 13,3 C 82 % 1018,6 hPa 0,0 l/m 2 min 0 min 584 W/m 6,4 km/h (2 Bft) 97,87 %
02.10.2022 14:34 17,5 C 18,9 C 13,3 C 82 % 1018,6 hPa 0,0 l/m 2 min 0 min 599 W/m 16,1 km/h (3 Bft) 97,87 %
02.10.2022 14:36 17,6 C 18,9 C 13,3 C 82 % 1018,6 hPa 0,0 l/m 2 min 0 min 637 W/m 12,9 km/h (3 Bft) 95,74 %
02.10.2022 14:38 17,7 C 18,9 C 13,3 C 82 % 1018,6 hPa 0,0 l/m 2 min 0 min 650 W/m 12,9 km/h (3 Bft) 97,87 %
02.10.2022 14:40 17,8 C 18,3 C 13,3 C 81 % 1018,6 hPa 0,0 l/m 2 min 0 min 417 W/m 16,1 km/h (3 Bft) 97,83 %
02.10.2022 14:42 17,7 C 17,8 C 13,3 C 79 % 1018,6 hPa 0,0 l/m 0 min 0 min 227 W/m 19,3 km/h (3 Bft) 97,87 %
02.10.2022 14:44 17,6 C 17,8 C 13,3 C 78 % 1018,6 hPa 0,0 l/m 2 min 0 min 496 W/m 12,9 km/h (3 Bft) 97,87 %
02.10.2022 14:46 17,6 C 17,8 C 13,3 C 78 % 1018,7 hPa 0,0 l/m 2 min 0 min 373 W/m 6,4 km/h (2 Bft) 97,87 %
02.10.2022 14:48 17,6 C 17,8 C 13,3 C 78 % 1018,7 hPa 0,0 l/m 2 min 0 min 414 W/m 12,9 km/h (3 Bft) 97,87 %
02.10.2022 14:50 17,6 C 17,8 C 13,3 C 79 % 1018,7 hPa 0,0 l/m 2 min 0 min 373 W/m 16,1 km/h (3 Bft) 97,87 %
02.10.2022 14:52 17,5 C 17,2 C 13,3 C 78 % 1018,7 hPa 0,0 l/m 2 min 0 min 277 W/m 16,1 km/h (3 Bft) 97,83 %
02.10.2022 14:54 17,4 C 17,2 C 13,3 C 78 % 1018,7 hPa 0,0 l/m 0 min 0 min 230 W/m 12,9 km/h (3 Bft) 97,87 %
02.10.2022 14:56 17,3 C 16,7 C 13,3 C 78 % 1018,7 hPa 0,0 l/m 0 min 0 min 205 W/m 12,9 km/h (3 Bft) 97,87 %
02.10.2022 14:58 17,3 C 16,7 C 12,8 C 79 % 1018,7 hPa 0,0 l/m 0 min 0 min 186 W/m 9,7 km/h (2 Bft) 97,87 %
02.10.2022 15:00 17,3 C 16,7 C 12,8 C 78 % 1018,6 hPa 0,0 l/m 0 min 0 min 211 W/m 16,1 km/h (3 Bft) 97,87 %
02.10.2022 15:02 17,2 C 16,7 C 12,8 C 79 % 1018,7 hPa 0,0 l/m 0 min 0 min 240 W/m 6,4 km/h (2 Bft) 100,00 %
02.10.2022 15:04 17,2 C 17,2 C 12,8 C 79 % 1018,7 hPa 0,0 l/m 0 min 0 min 224 W/m 9,7 km/h (2 Bft) 100,00 %
02.10.2022 15:06 17,2 C 17,2 C 12,8 C 80 % 1018,7 hPa 0,0 l/m 0 min 0 min 205 W/m 12,9 km/h (3 Bft) 100,00 %
02.10.2022 15:08 17,2 C 16,7 C 12,8 C 79 % 1018,7 hPa 0,0 l/m 0 min 0 min 193 W/m 12,9 km/h (3 Bft) 97,87 %
02.10.2022 15:10 17,1 C 16,7 C 12,8 C 78 % 1018,7 hPa 0,0 l/m 0 min 0 min 191 W/m 12,9 km/h (3 Bft) 100,00 %
02.10.2022 15:12 17,1 C 16,7 C 12,8 C 78 % 1018,7 hPa 0,0 l/m 0 min 0 min 188 W/m 6,4 km/h (2 Bft) 100,00 %
02.10.2022 15:14 17,1 C 16,7 C 12,8 C 77 % 1018,7 hPa 0,0 l/m 0 min 0 min 205 W/m 6,4 km/h (2 Bft) 100,00 %
02.10.2022 15:16 17,1 C 16,7 C 12,8 C 77 % 1018,7 hPa 0,0 l/m 0 min 0 min 231 W/m 12,9 km/h (3 Bft) 100,00 %
02.10.2022 15:18 17,1 C 16,7 C 12,8 C 77 % 1018,7 hPa 0,0 l/m 2 min 0 min 266 W/m 6,4 km/h (2 Bft) 97,87 %
02.10.2022 15:20 17,1 C 17,2 C 12,8 C 78 % 1018,7 hPa 0,0 l/m 2 min 0 min 264 W/m 16,1 km/h (3 Bft) 97,87 %
02.10.2022 15:22 17,1 C 17,2 C 12,8 C 78 % 1018,6 hPa 0,0 l/m 2 min 0 min 286 W/m 16,1 km/h (3 Bft) 100,00 %
02.10.2022 15:24 17,1 C 17,2 C 12,8 C 78 % 1018,7 hPa 0,0 l/m 2 min 0 min 308 W/m 12,9 km/h (3 Bft) 97,87 %
02.10.2022 15:26 17,1 C 17,2 C 12,8 C 78 % 1018,7 hPa 0,0 l/m 2 min 0 min 291 W/m 16,1 km/h (3 Bft) 95,65 %
02.10.2022 15:28 17,1 C 17,2 C 13,3 C 78 % 1018,7 hPa 0,0 l/m 2 min 0 min 294 W/m 19,3 km/h (3 Bft) 97,87 %
02.10.2022 15:30 17,2 C 17,2 C 12,8 C 78 % 1018,7 hPa 0,0 l/m 2 min 0 min 239 W/m 12,9 km/h (3 Bft) 95,74 %
02.10.2022 15:32 17,2 C 17,2 C 12,8 C 78 % 1018,7 hPa 0,0 l/m 0 min 0 min 232 W/m 6,4 km/h (2 Bft) 97,87 %
02.10.2022 15:34 17,2 C 17,2 C 12,8 C 78 % 1018,7 hPa 0,0 l/m 0 min 0 min 216 W/m 12,9 km/h (3 Bft) 97,87 %
02.10.2022 15:36 17,2 C 16,7 C 12,8 C 78 % 1018,7 hPa 0,0 l/m 0 min 0 min 185 W/m 9,7 km/h (2 Bft) 97,87 %
02.10.2022 15:38 17,2 C 16,7 C 12,8 C 79 % 1018,7 hPa 0,0 l/m 0 min 0 min 173 W/m 6,4 km/h (2 Bft) 95,65 %
02.10.2022 15:40 17,2 C 16,7 C 12,8 C 79 % 1018,7 hPa 0,0 l/m 0 min 0 min 166 W/m 9,7 km/h (2 Bft) 95,74 %
02.10.2022 15:42 17,1 C 16,7 C 12,8 C 79 % 1018,7 hPa 0,0 l/m 0 min 0 min 147 W/m 6,4 km/h (2 Bft) 97,87 %
02.10.2022 15:44 17,1 C 16,7 C 12,8 C 80 % 1018,7 hPa 0,0 l/m 0 min 0 min 124 W/m 6,4 km/h (2 Bft) 95,74 %
02.10.2022 15:46 17,1 C 16,7 C 12,8 C 80 % 1018,8 hPa 0,0 l/m 0 min 0 min 114 W/m 9,7 km/h (2 Bft) 95,74 %
02.10.2022 15:48 17,1 C 16,7 C 12,8 C 79 % 1018,9 hPa 0,0 l/m 0 min 0 min 111 W/m 12,9 km/h (3 Bft) 97,87 %
02.10.2022 15:50 17,1 C 16,1 C 12,8 C 79 % 1018,9 hPa 0,0 l/m 0 min 0 min 109 W/m 12,9 km/h (3 Bft) 95,65 %
02.10.2022 15:52 17,0 C 16,1 C 12,8 C 79 % 1018,9 hPa 0,0 l/m 0 min 0 min 114 W/m 9,7 km/h (2 Bft) 97,87 %
02.10.2022 15:54 16,9 C 16,1 C 12,8 C 79 % 1018,9 hPa 0,0 l/m 0 min 0 min 129 W/m 12,9 km/h (3 Bft) 95,74 %
02.10.2022 15:56 16,9 C 16,1 C 12,8 C 79 % 1019,0 hPa 0,0 l/m 0 min 0 min 148 W/m 12,9 km/h (3 Bft) 95,74 %
02.10.2022 15:58 16,8 C 16,1 C 12,8 C 79 % 1019,0 hPa 0,0 l/m 0 min 0 min 171 W/m 9,7 km/h (2 Bft) 95,74 %
02.10.2022 16:00 16,8 C 16,7 C 12,8 C 79 % 1018,9 hPa 0,0 l/m 0 min 0 min 180 W/m 9,7 km/h (2 Bft) 74,47 %
02.10.2022 16:02 16,8 C 16,7 C 12,8 C 79 % 1019,0 hPa 0,0 l/m 0 min 0 min 184 W/m 9,7 km/h (2 Bft) 45,00 %
02.10.2022 16:04 16,8 C 16,7 C 12,8 C 80 % 1019,0 hPa 0,0 l/m 2 min 0 min 211 W/m 12,9 km/h (3 Bft) 93,62 %
02.10.2022 16:06 16,8 C 16,7 C 12,8 C 79 % 1019,1 hPa 0,0 l/m 2 min 0 min 285 W/m 6,4 km/h (2 Bft) 95,74 %
02.10.2022 16:08 16,8 C 16,7 C 12,8 C 80 % 1019,1 hPa 0,0 l/m 2 min 0 min 231 W/m 16,1 km/h (3 Bft) 95,74 %
02.10.2022 16:10 16,8 C 16,7 C 12,8 C 80 % 1019,1 hPa 0,0 l/m 0 min 0 min 196 W/m 16,1 km/h (3 Bft) 93,62 %
02.10.2022 16:12 16,9 C 16,7 C 12,8 C 80 % 1019,1 hPa 0,0 l/m 2 min 0 min 242 W/m 12,9 km/h (3 Bft) 95,65 %
02.10.2022 16:14 16,9 C 16,7 C 12,8 C 80 % 1019,1 hPa 0,0 l/m 2 min 0 min 228 W/m 12,9 km/h (3 Bft) 95,74 %
02.10.2022 16:16 16,9 C 16,7 C 12,8 C 79 % 1019,2 hPa 0,0 l/m 0 min 0 min 165 W/m 16,1 km/h (3 Bft) 93,62 %
02.10.2022 16:18 16,9 C 16,7 C 12,8 C 79 % 1019,1 hPa 0,2 l/m 0 min 0 min 176 W/m 22,5 km/h (4 Bft) 95,74 %
02.10.2022 16:20 16,8 C 16,7 C 12,8 C 79 % 1019,2 hPa 0,0 l/m 2 min 0 min 212 W/m 12,9 km/h (3 Bft) 97,87 %
02.10.2022 16:22 16,8 C 16,7 C 12,8 C 79 % 1019,2 hPa 0,0 l/m 2 min 0 min 205 W/m 12,9 km/h (3 Bft) 93,62 %
02.10.2022 16:24 16,8 C 16,7 C 12,8 C 79 % 1019,2 hPa 0,0 l/m 0 min 0 min 190 W/m 16,1 km/h (3 Bft) 97,87 %
02.10.2022 16:26 16,8 C 16,7 C 12,8 C 79 % 1019,3 hPa 0,0 l/m 2 min 0 min 235 W/m 16,1 km/h (3 Bft) 97,83 %
02.10.2022 16:28 16,8 C 16,7 C 12,8 C 80 % 1019,3 hPa 0,0 l/m 2 min 0 min 330 W/m 12,9 km/h (3 Bft) 95,74 %
02.10.2022 16:30 16,8 C 16,7 C 12,8 C 80 % 1019,3 hPa 0,0 l/m 2 min 0 min 256 W/m 12,9 km/h (3 Bft) 97,87 %
02.10.2022 16:32 16,8 C 16,7 C 12,8 C 80 % 1019,2 hPa 0,0 l/m 2 min 0 min 189 W/m 9,7 km/h (2 Bft) 97,87 %
02.10.2022 16:34 16,8 C 16,7 C 12,2 C 80 % 1019,2 hPa 0,0 l/m 0 min 0 min 175 W/m 16,1 km/h (3 Bft) 97,87 %
02.10.2022 16:36 16,9 C 16,7 C 12,2 C 81 % 1019,2 hPa 0,0 l/m 2 min 0 min 317 W/m 12,9 km/h (3 Bft) 97,83 %
02.10.2022 16:38 16,9 C 17,2 C 12,8 C 81 % 1019,2 hPa 0,0 l/m 2 min 0 min 367 W/m 16,1 km/h (3 Bft) 97,87 %
02.10.2022 16:40 16,9 C 17,8 C 12,8 C 81 % 1019,2 hPa 0,0 l/m 2 min 0 min 420 W/m 12,9 km/h (3 Bft) 95,74 %
02.10.2022 16:42 17,0 C 17,8 C 12,8 C 81 % 1019,2 hPa 0,0 l/m 2 min 0 min 326 W/m 12,9 km/h (3 Bft) 97,87 %
02.10.2022 16:44 17,1 C 17,2 C 12,8 C 81 % 1019,2 hPa 0,0 l/m 2 min 0 min 222 W/m 12,9 km/h (3 Bft) 97,87 %
02.10.2022 16:46 17,1 C 17,2 C 12,8 C 81 % 1019,1 hPa 0,0 l/m 2 min 0 min 206 W/m 12,9 km/h (3 Bft) 95,74 %
02.10.2022 16:48 17,1 C 17,2 C 12,8 C 81 % 1019,1 hPa 0,0 l/m 2 min 0 min 314 W/m 16,1 km/h (3 Bft) 97,83 %
02.10.2022 16:50 17,1 C 17,2 C 12,8 C 81 % 1019,2 hPa 0,0 l/m 2 min 0 min 234 W/m 12,9 km/h (3 Bft) 97,87 %
02.10.2022 16:52 17,1 C 16,7 C 12,8 C 80 % 1019,2 hPa 0,0 l/m 2 min 0 min 196 W/m 16,1 km/h (3 Bft) 97,87 %
02.10.2022 16:54 17,1 C 16,7 C 12,8 C 81 % 1019,2 hPa 0,0 l/m 2 min 0 min 187 W/m 16,1 km/h (3 Bft) 97,87 %
02.10.2022 16:56 17,1 C 17,2 C 12,2 C 81 % 1019,2 hPa 0,0 l/m 2 min 0 min 301 W/m 12,9 km/h (3 Bft) 97,87 %
02.10.2022 16:58 17,1 C 17,8 C 12,2 C 81 % 1019,2 hPa 0,0 l/m 2 min 0 min 328 W/m 9,7 km/h (2 Bft) 97,87 %
02.10.2022 17:00 17,1 C 17,8 C 12,2 C 81 % 1019,2 hPa 0,0 l/m 2 min 0 min 288 W/m 12,9 km/h (3 Bft) 97,83 %
02.10.2022 17:02 17,1 C 17,8 C 12,2 C 81 % 1019,2 hPa 0,0 l/m 2 min 0 min 322 W/m 16,1 km/h (3 Bft) 95,74 %
02.10.2022 17:04 17,2 C 17,2 C 12,2 C 81 % 1019,1 hPa 0,0 l/m 2 min 0 min 314 W/m 12,9 km/h (3 Bft) 97,92 %
02.10.2022 17:06 17,2 C 17,2 C 12,8 C 80 % 1019,2 hPa 0,0 l/m 2 min 0 min 277 W/m 12,9 km/h (3 Bft) 97,87 %
02.10.2022 17:08 17,2 C 16,7 C 12,8 C 80 % 1019,2 hPa 0,0 l/m 2 min 0 min 254 W/m 9,7 km/h (2 Bft) 97,87 %
02.10.2022 17:10 17,2 C 16,7 C 12,2 C 79 % 1019,3 hPa 0,0 l/m 2 min 0 min 219 W/m 19,3 km/h (3 Bft) 97,87 %
02.10.2022 17:12 17,2 C 16,7 C 12,2 C 78 % 1019,2 hPa 0,0 l/m 2 min 0 min 194 W/m 12,9 km/h (3 Bft) 95,65 %
02.10.2022 17:14 17,2 C 16,7 C 12,2 C 78 % 1019,2 hPa 0,0 l/m 2 min 0 min 267 W/m 9,7 km/h (2 Bft) 97,87 %
02.10.2022 17:16 17,2 C 16,7 C 12,2 C 79 % 1019,2 hPa 0,0 l/m 2 min 0 min 262 W/m 16,1 km/h (3 Bft) 97,87 %
02.10.2022 17:18 17,2 C 16,1 C 12,2 C 79 % 1019,3 hPa 0,0 l/m 2 min 0 min 253 W/m 12,9 km/h (3 Bft) 100,00 %
02.10.2022 17:20 17,2 C 16,1 C 12,2 C 79 % 1019,3 hPa 0,0 l/m 2 min 0 min 248 W/m 12,9 km/h (3 Bft) 97,87 %
02.10.2022 17:22 17,2 C 16,1 C 12,2 C 79 % 1019,3 hPa 0,0 l/m 2 min 0 min 240 W/m 9,7 km/h (2 Bft) 100,00 %
02.10.2022 17:24 17,1 C 16,1 C 12,2 C 79 % 1019,4 hPa 0,0 l/m 2 min 0 min 233 W/m 12,9 km/h (3 Bft) 97,83 %
02.10.2022 17:26 17,1 C 16,1 C 12,2 C 79 % 1019,4 hPa 0,0 l/m 2 min 0 min 225 W/m 6,4 km/h (2 Bft) 97,87 %
02.10.2022 17:28 17,1 C 16,1 C 12,2 C 79 % 1019,4 hPa 0,0 l/m 2 min 0 min 218 W/m 12,9 km/h (3 Bft) 100,00 %
02.10.2022 17:30 17,1 C 16,1 C 12,2 C 79 % 1019,4 hPa 0,0 l/m 2 min 0 min 211 W/m 12,9 km/h (3 Bft) 100,00 %
02.10.2022 17:32 17,1 C 16,1 C 12,2 C 80 % 1019,5 hPa 0,0 l/m 2 min 0 min 206 W/m 6,4 km/h (2 Bft) 100,00 %
02.10.2022 17:34 17,1 C 16,1 C 12,2 C 80 % 1019,5 hPa 0,0 l/m 2 min 0 min 197 W/m 12,9 km/h (3 Bft) 100,00 %
02.10.2022 17:36 17,1 C 16,1 C 12,2 C 80 % 1019,5 hPa 0,0 l/m 2 min 0 min 190 W/m 12,9 km/h (3 Bft) 100,00 %
02.10.2022 17:38 17,0 C 16,1 C 12,2 C 80 % 1019,5 hPa 0,0 l/m 2 min 0 min 181 W/m 9,7 km/h (2 Bft) 100,00 %
02.10.2022 17:40 17,0 C 16,1 C 12,2 C 80 % 1019,5 hPa 0,0 l/m 2 min 0 min 178 W/m 9,7 km/h (2 Bft) 100,00 %
02.10.2022 17:42 17,0 C 16,1 C 12,2 C 80 % 1019,5 hPa 0,0 l/m 2 min 0 min 179 W/m 9,7 km/h (2 Bft) 100,00 %
02.10.2022 17:44 16,9 C 16,1 C 12,2 C 79 % 1019,5 hPa 0,0 l/m 2 min 0 min 181 W/m 22,5 km/h (4 Bft) 100,00 %
02.10.2022 17:46 16,9 C 16,1 C 12,2 C 79 % 1019,5 hPa 0,0 l/m 2 min 0 min 180 W/m 16,1 km/h (3 Bft) 100,00 %
02.10.2022 17:48 16,9 C 16,1 C 12,2 C 79 % 1019,6 hPa 0,0 l/m 2 min 0 min 176 W/m 12,9 km/h (3 Bft) 100,00 %
02.10.2022 17:50 16,9 C 16,1 C 12,2 C 79 % 1019,6 hPa 0,0 l/m 2 min 0 min 175 W/m 9,7 km/h (2 Bft) 100,00 %
02.10.2022 17:52 16,9 C 16,1 C 12,2 C 79 % 1019,6 hPa 0,0 l/m 2 min 0 min 119 W/m 6,4 km/h (2 Bft) 100,00 %
02.10.2022 17:54 16,9 C 16,1 C 12,2 C 79 % 1019,6 hPa 0,0 l/m 2 min 0 min 98 W/m 6,4 km/h (2 Bft) 100,00 %
02.10.2022 17:56 16,9 C 16,1 C 12,2 C 79 % 1019,6 hPa 0,0 l/m 2 min 0 min 91 W/m 12,9 km/h (3 Bft) 100,00 %
02.10.2022 17:58 16,9 C 16,1 C 12,2 C 79 % 1019,6 hPa 0,0 l/m 0 min 0 min 84 W/m 9,7 km/h (2 Bft) 100,00 %
02.10.2022 18:00 16,9 C 16,1 C 12,2 C 79 % 1019,6 hPa 0,0 l/m 0 min 0 min 83 W/m 9,7 km/h (2 Bft) 95,74 %
02.10.2022 18:02 16,9 C 16,1 C 12,2 C 79 % 1019,6 hPa 0,0 l/m 2 min 0 min 87 W/m 6,4 km/h (2 Bft) 97,87 %
02.10.2022 18:04 16,9 C 16,1 C 12,2 C 80 % 1019,6 hPa 0,0 l/m 2 min 0 min 101 W/m 6,4 km/h (2 Bft) 100,00 %
02.10.2022 18:08 16,9 C 16,7 C 12,2 C 80 % 1019,6 hPa 0,0 l/m 4 min 0 min 106 W/m 9,7 km/h (2 Bft) 97,87 %
02.10.2022 18:10 16,9 C 16,7 C 12,2 C 80 % 1019,7 hPa 0,0 l/m 2 min 0 min 106 W/m 12,9 km/h (3 Bft) 97,83 %
02.10.2022 18:12 16,9 C 16,7 C 12,2 C 80 % 1019,7 hPa 0,0 l/m 2 min 0 min 119 W/m 9,7 km/h (2 Bft) 97,87 %
02.10.2022 18:14 16,9 C 16,7 C 12,2 C 80 % 1019,8 hPa 0,0 l/m 2 min 0 min 136 W/m 6,4 km/h (2 Bft) 97,87 %
02.10.2022 18:16 16,9 C 16,7 C 12,2 C 80 % 1019,8 hPa 0,0 l/m 2 min 0 min 152 W/m 9,7 km/h (2 Bft) 95,74 %
02.10.2022 18:18 16,9 C 16,7 C 12,2 C 80 % 1019,8 hPa 0,0 l/m 2 min 0 min 158 W/m 9,7 km/h (2 Bft) 97,87 %
02.10.2022 18:20 16,9 C 16,7 C 12,2 C 80 % 1019,8 hPa 0,0 l/m 2 min 0 min 145 W/m 12,9 km/h (3 Bft) 97,87 %
02.10.2022 18:22 16,9 C 16,7 C 12,2 C 80 % 1019,9 hPa 0,0 l/m 2 min 0 min 128 W/m 6,4 km/h (2 Bft) 95,65 %
02.10.2022 18:24 16,9 C 16,1 C 12,2 C 80 % 1019,9 hPa 0,0 l/m 2 min 0 min 105 W/m 12,9 km/h (3 Bft) 95,74 %
02.10.2022 18:26 16,9 C 16,1 C 12,2 C 80 % 1019,9 hPa 0,0 l/m 2 min 0 min 85 W/m 12,9 km/h (3 Bft) 97,87 %
02.10.2022 18:28 16,9 C 16,1 C 12,2 C 80 % 1019,9 hPa 0,0 l/m 2 min 0 min 61 W/m 6,4 km/h (2 Bft) 97,87 %
02.10.2022 18:30 16,8 C 16,1 C 12,2 C 80 % 1020,0 hPa 0,0 l/m 2 min 0 min 47 W/m 9,7 km/h (2 Bft) 97,87 %
02.10.2022 18:32 16,8 C 15,6 C 12,2 C 81 % 1020,1 hPa 0,0 l/m 0 min 0 min 39 W/m 9,7 km/h (2 Bft) 95,74 %
02.10.2022 18:34 16,7 C 15,6 C 11,7 C 81 % 1020,1 hPa 0,0 l/m 0 min 0 min 30 W/m 6,4 km/h (2 Bft) 95,65 %
02.10.2022 18:36 16,7 C 15,6 C 11,7 C 81 % 1020,1 hPa 0,0 l/m 0 min 0 min 23 W/m 6,4 km/h (2 Bft) 91,49 %
02.10.2022 18:38 16,6 C 15,6 C 11,7 C 81 % 1020,2 hPa 0,0 l/m 0 min 0 min 19 W/m 6,4 km/h (2 Bft) 95,74 %
02.10.2022 18:40 16,6 C 15,0 C 11,7 C 81 % 1020,2 hPa 0,0 l/m 0 min 0 min 19 W/m 12,9 km/h (3 Bft) 93,62 %
02.10.2022 18:42 16,6 C 15,0 C 11,7 C 81 % 1020,2 hPa 0,0 l/m 0 min 0 min 19 W/m 3,2 km/h (1 Bft) 95,74 %
02.10.2022 18:44 16,5 C 15,0 C 11,1 C 81 % 1020,3 hPa 0,0 l/m 0 min 0 min 18 W/m 6,4 km/h (2 Bft) 95,74 %
02.10.2022 18:46 16,4 C 15,0 C 11,1 C 82 % 1020,3 hPa 0,0 l/m 0 min 0 min 17 W/m 3,2 km/h (1 Bft) 95,65 %
02.10.2022 18:48 16,4 C 15,0 C 11,1 C 82 % 1020,3 hPa 0,0 l/m 0 min 0 min 16 W/m 3,2 km/h (1 Bft) 93,62 %
02.10.2022 18:50 16,3 C 14,4 C 11,1 C 82 % 1020,4 hPa 0,0 l/m 0 min 0 min 14 W/m 6,4 km/h (2 Bft) 93,62 %
02.10.2022 18:52 16,3 C 14,4 C 11,1 C 82 % 1020,4 hPa 0,0 l/m 0 min 0 min 13 W/m 3,2 km/h (1 Bft) 95,74 %
02.10.2022 18:54 16,2 C 14,4 C 11,1 C 83 % 1020,5 hPa 0,0 l/m 0 min 0 min 12 W/m 3,2 km/h (1 Bft) 93,62 %
02.10.2022 18:56 16,2 C 14,4 C 11,1 C 83 % 1020,5 hPa 0,0 l/m 0 min 0 min 11 W/m 3,2 km/h (1 Bft) 97,83 %
02.10.2022 18:58 16,1 C 14,4 C 10,6 C 83 % 1020,6 hPa 0,0 l/m 0 min 0 min 11 W/m 6,4 km/h (2 Bft) 97,87 %
02.10.2022 19:00 16,0 C 13,9 C 10,6 C 83 % 1020,6 hPa 0,0 l/m 0 min 0 min 9 W/m 6,4 km/h (2 Bft) 95,74 %
02.10.2022 19:02 15,9 C 13,9 C 10,6 C 83 % 1020,6 hPa 0,0 l/m 0 min 0 min 8 W/m 0,0 km/h (0 Bft) 95,74 %
02.10.2022 19:04 15,9 C 13,9 C 10,6 C 84 % 1020,6 hPa 0,0 l/m 0 min 0 min 7 W/m 3,2 km/h (1 Bft) 95,83 %
02.10.2022 19:06 15,8 C 13,9 C 10,6 C 84 % 1020,7 hPa 0,0 l/m 0 min 0 min 6 W/m 6,4 km/h (2 Bft) 93,62 %
02.10.2022 19:08 15,7 C 13,9 C 10,6 C 84 % 1020,8 hPa 0,0 l/m 0 min 0 min 5 W/m 3,2 km/h (1 Bft) 95,65 %
02.10.2022 19:10 15,6 C 13,9 C 10,6 C 84 % 1020,8 hPa 0,0 l/m 0 min 0 min 4 W/m 3,2 km/h (1 Bft) 93,62 %
02.10.2022 19:12 15,6 C 13,9 C 10,6 C 84 % 1020,9 hPa 0,0 l/m 0 min 0 min 0 W/m 6,4 km/h (2 Bft) 95,74 %
02.10.2022 19:14 15,4 C 13,9 C 10,6 C 84 % 1020,9 hPa 0,0 l/m 0 min 0 min 0 W/m 9,7 km/h (2 Bft) 95,74 %
02.10.2022 19:16 15,4 C 13,9 C 10,6 C 84 % 1021,0 hPa 0,0 l/m 0 min 0 min 0 W/m 6,4 km/h (2 Bft) 93,62 %
02.10.2022 19:18 15,3 C 13,9 C 10,6 C 84 % 1021,0 hPa 0,0 l/m 0 min 0 min 0 W/m 9,7 km/h (2 Bft) 95,74 %
02.10.2022 19:20 15,2 C 13,9 C 10,6 C 83 % 1021,0 hPa 0,0 l/m 0 min 0 min 0 W/m 6,4 km/h (2 Bft) 97,83 %
02.10.2022 19:22 15,2 C 13,9 C 10,6 C 83 % 1021,0 hPa 0,0 l/m 0 min 0 min 0 W/m 3,2 km/h (1 Bft) 97,87 %
02.10.2022 19:24 15,1 C 13,3 C 10,6 C 83 % 1021,1 hPa 0,0 l/m 0 min 0 min 0 W/m 3,2 km/h (1 Bft) 97,87 %
02.10.2022 19:26 15,1 C 13,3 C 10,0 C 83 % 1021,2 hPa 0,0 l/m 0 min 0 min 0 W/m 9,7 km/h (2 Bft) 95,74 %
02.10.2022 19:28 15,0 C 13,3 C 10,0 C 83 % 1021,2 hPa 0,0 l/m 0 min 0 min 0 W/m 3,2 km/h (1 Bft) 95,74 %
02.10.2022 19:30 14,9 C 13,3 C 10,0 C 83 % 1021,3 hPa 0,0 l/m 0 min 0 min 0 W/m 6,4 km/h (2 Bft) 97,87 %
02.10.2022 19:32 14,9 C 13,3 C 10,0 C 83 % 1021,3 hPa 0,0 l/m 0 min 0 min 0 W/m 3,2 km/h (1 Bft) 97,83 %
02.10.2022 19:34 14,9 C 13,3 C 10,0 C 83 % 1021,4 hPa 0,0 l/m 0 min 0 min 0 W/m 3,2 km/h (1 Bft) 100,00 %
02.10.2022 19:36 14,8 C 13,3 C 10,0 C 83 % 1021,4 hPa 0,0 l/m 0 min 0 min 0 W/m 3,2 km/h (1 Bft) 100,00 %
02.10.2022 19:38 14,8 C 13,3 C 10,0 C 83 % 1021,5 hPa 0,0 l/m 0 min 0 min 0 W/m 6,4 km/h (2 Bft) 100,00 %
02.10.2022 19:40 14,7 C 13,3 C 10,0 C 83 % 1021,5 hPa 0,0 l/m 0 min 0 min 0 W/m 9,7 km/h (2 Bft) 100,00 %
02.10.2022 19:42 14,6 C 13,3 C 10,0 C 83 % 1021,5 hPa 0,0 l/m 0 min 0 min 0 W/m 9,7 km/h (2 Bft) 100,00 %
02.10.2022 19:44 14,6 C 13,3 C 10,0 C 83 % 1021,6 hPa 0,0 l/m 0 min 0 min 0 W/m 0,0 km/h (0 Bft) 100,00 %
02.10.2022 19:46 14,5 C 13,3 C 10,0 C 83 % 1021,6 hPa 0,0 l/m 0 min 0 min 0 W/m 6,4 km/h (2 Bft) 100,00 %
02.10.2022 19:48 14,4 C 12,8 C 10,0 C 83 % 1021,6 hPa 0,0 l/m 0 min 0 min 0 W/m 6,4 km/h (2 Bft) 100,00 %
02.10.2022 19:50 14,3 C 12,8 C 10,0 C 83 % 1021,7 hPa 0,0 l/m 0 min 0 min 0 W/m 3,2 km/h (1 Bft) 100,00 %
02.10.2022 19:52 14,3 C 12,8 C 10,0 C 83 % 1021,7 hPa 0,0 l/m 0 min 0 min 0 W/m 6,4 km/h (2 Bft) 100,00 %
02.10.2022 19:54 14,3 C 12,8 C 9,4 C 84 % 1021,7 hPa 0,0 l/m 0 min 0 min 0 W/m 6,4 km/h (2 Bft) 100,00 %
02.10.2022 19:56 14,3 C 12,8 C 9,4 C 84 % 1021,8 hPa 0,0 l/m 0 min 0 min 0 W/m 3,2 km/h (1 Bft) 100,00 %
02.10.2022 19:58 14,3 C 12,8 C 9,4 C 84 % 1021,8 hPa 0,0 l/m 0 min 0 min 0 W/m 3,2 km/h (1 Bft) 100,00 %
02.10.2022 20:00 14,3 C 12,8 C 9,4 C 84 % 1021,8 hPa 0,0 l/m 0 min 0 min 0 W/m 3,2 km/h (1 Bft) 100,00 %
02.10.2022 20:02 14,2 C 12,8 C 9,4 C 84 % 1021,9 hPa 0,0 l/m 0 min 0 min 0 W/m 6,4 km/h (2 Bft) 100,00 %
02.10.2022 20:04 14,1 C 12,8 C 9,4 C 84 % 1021,9 hPa 0,0 l/m 0 min 0 min 0 W/m 9,7 km/h (2 Bft) 100,00 %
02.10.2022 20:06 14,1 C 12,8 C 9,4 C 84 % 1022,0 hPa 0,0 l/m 0 min 0 min 0 W/m 6,4 km/h (2 Bft) 97,83 %
02.10.2022 20:08 14,1 C 12,8 C 9,4 C 84 % 1022,0 hPa 0,0 l/m 0 min 0 min 0 W/m 6,4 km/h (2 Bft) 95,74 %
02.10.2022 20:10 14,1 C 12,8 C 9,4 C 84 % 1022,0 hPa 0,0 l/m 0 min 0 min 0 W/m 0,0 km/h (0 Bft) 100,00 %
02.10.2022 20:12 14,0 C 12,8 C 9,4 C 84 % 1022,0 hPa 0,0 l/m 0 min 0 min 0 W/m 6,4 km/h (2 Bft) 100,00 %
02.10.2022 20:14 13,9 C 12,8 C 9,4 C 84 % 1022,0 hPa 0,0 l/m 0 min 0 min 0 W/m 3,2 km/h (1 Bft) 100,00 %
02.10.2022 20:16 13,9 C 12,8 C 9,4 C 84 % 1022,1 hPa 0,0 l/m 0 min 0 min 0 W/m 3,2 km/h (1 Bft) 100,00 %
02.10.2022 20:18 13,8 C 12,2 C 9,4 C 84 % 1022,1 hPa 0,0 l/m 0 min 0 min 0 W/m 6,4 km/h (2 Bft) 100,00 %
02.10.2022 20:20 13,8 C 12,2 C 8,9 C 84 % 1022,1 hPa 0,0 l/m 0 min 0 min 0 W/m 3,2 km/h (1 Bft) 100,00 %
02.10.2022 20:22 13,8 C 12,2 C 8,9 C 84 % 1022,1 hPa 0,0 l/m 0 min 0 min 0 W/m 3,2 km/h (1 Bft) 100,00 %
02.10.2022 20:24 13,8 C 12,2 C 8,9 C 84 % 1022,1 hPa 0,0 l/m 0 min 0 min 0 W/m 0,0 km/h (0 Bft) 100,00 %
02.10.2022 20:26 13,7 C 12,2 C 8,9 C 84 % 1022,2 hPa 0,0 l/m 0 min 0 min 0 W/m 0,0 km/h (0 Bft) 100,00 %
02.10.2022 20:28 13,7 C 11,7 C 8,9 C 84 % 1022,2 hPa 0,0 l/m 0 min 0 min 0 W/m 3,2 km/h (1 Bft) 100,00 %
02.10.2022 20:30 13,6 C 11,7 C 8,9 C 84 % 1022,2 hPa 0,0 l/m 0 min 0 min 0 W/m 3,2 km/h (1 Bft) 100,00 %
02.10.2022 20:32 13,6 C 11,7 C 8,9 C 84 % 1022,3 hPa 0,0 l/m 0 min 0 min 0 W/m 0,0 km/h (0 Bft) 100,00 %
02.10.2022 20:34 13,6 C 11,7 C 8,3 C 85 % 1022,4 hPa 0,0 l/m 0 min 0 min 0 W/m 0,0 km/h (0 Bft) 100,00 %
02.10.2022 20:36 13,5 C 11,7 C 8,3 C 85 % 1022,4 hPa 0,0 l/m 0 min 0 min 0 W/m 3,2 km/h (1 Bft) 100,00 %
02.10.2022 20:38 13,4 C 11,7 C 8,3 C 85 % 1022,4 hPa 0,0 l/m 0 min 0 min 0 W/m 3,2 km/h (1 Bft) 100,00 %
02.10.2022 20:40 13,4 C 11,7 C 8,9 C 85 % 1022,5 hPa 0,0 l/m 0 min 0 min 0 W/m 9,7 km/h (2 Bft) 97,87 %
02.10.2022 20:42 13,3 C 11,7 C 8,9 C 85 % 1022,5 hPa 0,0 l/m 0 min 0 min 0 W/m 3,2 km/h (1 Bft) 100,00 %
02.10.2022 20:44 13,3 C 11,7 C 8,9 C 85 % 1022,5 hPa 0,0 l/m 0 min 0 min 0 W/m 3,2 km/h (1 Bft) 95,74 %
02.10.2022 20:46 13,2 C 11,7 C 8,9 C 86 % 1022,5 hPa 0,0 l/m 0 min 0 min 0 W/m 3,2 km/h (1 Bft) 95,74 %
02.10.2022 20:48 13,2 C 12,2 C 8,9 C 86 % 1022,6 hPa 0,0 l/m 0 min 0 min 0 W/m 3,2 km/h (1 Bft) 100,00 %
02.10.2022 20:50 13,2 C 12,2 C 8,9 C 86 % 1022,6 hPa 0,0 l/m 0 min 0 min 0 W/m 3,2 km/h (1 Bft) 93,62 %
02.10.2022 20:52 13,1 C 11,7 C 8,9 C 86 % 1022,7 hPa 0,0 l/m 0 min 0 min 0 W/m 3,2 km/h (1 Bft) 97,83 %
02.10.2022 20:54 13,1 C 11,7 C 8,9 C 86 % 1022,7 hPa 0,0 l/m 0 min 0 min 0 W/m 3,2 km/h (1 Bft) 97,87 %
02.10.2022 20:56 13,1 C 11,7 C 8,9 C 86 % 1022,7 hPa 0,0 l/m 0 min 0 min 0 W/m 0,0 km/h (0 Bft) 95,74 %
02.10.2022 20:58 13,1 C 11,7 C 8,3 C 86 % 1022,7 hPa 0,0 l/m 0 min 0 min 0 W/m 3,2 km/h (1 Bft) 97,87 %
02.10.2022 21:00 13,0 C 11,7 C 8,3 C 86 % 1022,7 hPa 0,0 l/m 0 min 0 min 0 W/m 3,2 km/h (1 Bft) 97,87 %
02.10.2022 21:02 12,9 C 11,7 C 8,3 C 86 % 1022,8 hPa 0,0 l/m 0 min 0 min 0 W/m 6,4 km/h (2 Bft) 91,49 %
02.10.2022 21:04 12,9 C 11,7 C 8,3 C 86 % 1022,8 hPa 0,0 l/m 0 min 0 min 0 W/m 3,2 km/h (1 Bft) 95,74 %
02.10.2022 21:06 12,9 C 11,7 C 8,3 C 86 % 1022,8 hPa 0,0 l/m 0 min 0 min 0 W/m 3,2 km/h (1 Bft) 93,62 %
02.10.2022 21:08 12,9 C 11,7 C 8,3 C 86 % 1022,8 hPa 0,0 l/m 0 min 0 min 0 W/m 6,4 km/h (2 Bft) 91,49 %
02.10.2022 21:10 12,8 C 11,7 C 8,3 C 86 % 1022,9 hPa 0,0 l/m 0 min 0 min 0 W/m 3,2 km/h (1 Bft) 93,62 %
02.10.2022 21:12 12,8 C 11,7 C 8,3 C 87 % 1022,9 hPa 0,0 l/m 0 min 0 min 0 W/m 3,2 km/h (1 Bft) 91,49 %
02.10.2022 21:14 12,8 C 11,1 C 8,3 C 87 % 1022,9 hPa 0,0 l/m 0 min 0 min 0 W/m 3,2 km/h (1 Bft) 91,49 %
02.10.2022 21:16 12,7 C 11,1 C 7,8 C 87 % 1023,0 hPa 0,0 l/m 0 min 0 min 0 W/m 0,0 km/h (0 Bft) 93,48 %
02.10.2022 21:18 12,7 C 11,1 C 7,8 C 87 % 1022,9 hPa 0,0 l/m 0 min 0 min 0 W/m 0,0 km/h (0 Bft) 93,62 %
02.10.2022 21:20 12,7 C 11,1 C 7,8 C 87 % 1022,9 hPa 0,0 l/m 0 min 0 min 0 W/m 0,0 km/h (0 Bft) 95,74 %
02.10.2022 21:22 12,6 C 10,6 C 7,8 C 87 % 1022,9 hPa 0,0 l/m 0 min 0 min 0 W/m 0,0 km/h (0 Bft) 95,74 %
02.10.2022 21:24 12,6 C 10,6 C 7,8 C 87 % 1023,0 hPa 0,0 l/m 0 min 0 min 0 W/m 3,2 km/h (1 Bft) 95,74 %
02.10.2022 21:26 12,6 C 10,6 C 7,8 C 87 % 1023,0 hPa 0,0 l/m 0 min 0 min 0 W/m 0,0 km/h (0 Bft) 95,74 %
02.10.2022 21:28 12,5 C 10,6 C 7,8 C 87 % 1023,1 hPa 0,0 l/m 0 min 0 min 0 W/m 3,2 km/h (1 Bft) 97,83 %
02.10.2022 21:30 12,4 C 10,6 C 7,8 C 87 % 1023,1 hPa 0,0 l/m 0 min 0 min 0 W/m 0,0 km/h (0 Bft) 95,74 %
02.10.2022 21:32 12,4 C 10,6 C 7,2 C 87 % 1023,1 hPa 0,0 l/m 0 min 0 min 0 W/m 3,2 km/h (1 Bft) 93,62 %
02.10.2022 21:34 12,4 C 10,6 C 7,2 C 87 % 1023,1 hPa 0,0 l/m 0 min 0 min 0 W/m 0,0 km/h (0 Bft) 95,74 %
02.10.2022 21:36 12,3 C 10,6 C 7,2 C 87 % 1023,2 hPa 0,0 l/m 0 min 0 min 0 W/m 3,2 km/h (1 Bft) 95,74 %
02.10.2022 21:38 12,3 C 10,6 C 7,2 C 87 % 1023,2 hPa 0,0 l/m 0 min 0 min 0 W/m 3,2 km/h (1 Bft) 97,87 %
02.10.2022 21:40 12,2 C 10,6 C 7,2 C 87 % 1023,2 hPa 0,0 l/m 0 min 0 min 0 W/m 0,0 km/h (0 Bft) 97,83 %
02.10.2022 21:42 12,2 C 10,6 C 7,2 C 87 % 1023,3 hPa 0,0 l/m 0 min 0 min 0 W/m 3,2 km/h (1 Bft) 97,87 %
02.10.2022 21:44 12,1 C 10,6 C 7,2 C 87 % 1023,3 hPa 0,0 l/m 0 min 0 min 0 W/m 0,0 km/h (0 Bft) 95,74 %
02.10.2022 21:46 12,1 C 10,6 C 7,2 C 88 % 1023,4 hPa 0,0 l/m 0 min 0 min 0 W/m 6,4 km/h (2 Bft) 97,87 %
02.10.2022 21:48 12,1 C 10,6 C 7,2 C 88 % 1023,4 hPa 0,0 l/m 0 min 0 min 0 W/m 3,2 km/h (1 Bft) 95,74 %
02.10.2022 21:50 12,0 C 10,6 C 7,2 C 88 % 1023,4 hPa 0,0 l/m 0 min 0 min 0 W/m 6,4 km/h (2 Bft) 97,87 %
02.10.2022 21:52 11,9 C 10,6 C 7,8 C 88 % 1023,4 hPa 0,0 l/m 0 min 0 min 0 W/m 0,0 km/h (0 Bft) 97,83 %
02.10.2022 21:54 11,9 C 10,6 C 7,8 C 88 % 1023,4 hPa 0,0 l/m 0 min 0 min 0 W/m 0,0 km/h (0 Bft) 97,87 %
02.10.2022 21:56 11,9 C 10,6 C 7,8 C 88 % 1023,4 hPa 0,0 l/m 0 min 0 min 0 W/m 3,2 km/h (1 Bft) 97,87 %
02.10.2022 21:58 11,9 C 10,6 C 7,8 C 89 % 1023,5 hPa 0,0 l/m 0 min 0 min 0 W/m 0,0 km/h (0 Bft) 97,87 %
02.10.2022 22:00 11,9 C 10,6 C 7,8 C 89 % 1023,5 hPa 0,0 l/m 0 min 0 min 0 W/m 3,2 km/h (1 Bft) 93,62 %
02.10.2022 22:02 11,8 C 10,6 C 7,8 C 89 % 1023,5 hPa 0,0 l/m 0 min 0 min 0 W/m 3,2 km/h (1 Bft) 97,87 %
02.10.2022 22:04 11,8 C 10,6 C 7,2 C 89 % 1023,6 hPa 0,0 l/m 0 min 0 min 0 W/m 0,0 km/h (0 Bft) 97,22 %
02.10.2022 22:06 11,8 C 10,6 C 7,2 C 89 % 1023,6 hPa 0,0 l/m 0 min 0 min 0 W/m 0,0 km/h (0 Bft) 100,00 %
02.10.2022 22:08 11,8 C 10,6 C 7,2 C 89 % 1023,6 hPa 0,0 l/m 0 min 0 min 0 W/m 0,0 km/h (0 Bft) 100,00 %
02.10.2022 22:10 11,7 C 10,6 C 7,2 C 89 % 1023,6 hPa 0,0 l/m 0 min 0 min 0 W/m 0,0 km/h (0 Bft) 97,87 %
02.10.2022 22:12 11,7 C 10,6 C 7,2 C 89 % 1023,6 hPa 0,0 l/m 0 min 0 min 0 W/m 3,2 km/h (1 Bft) 100,00 %
02.10.2022 22:14 11,7 C 10,0 C 7,2 C 89 % 1023,6 hPa 0,0 l/m 0 min 0 min 0 W/m 0,0 km/h (0 Bft) 100,00 %
02.10.2022 22:16 11,7 C 10,0 C 7,2 C 89 % 1023,7 hPa 0,0 l/m 0 min 0 min 0 W/m 3,2 km/h (1 Bft) 100,00 %
02.10.2022 22:18 11,6 C 10,0 C 7,2 C 89 % 1023,7 hPa 0,0 l/m 0 min 0 min 0 W/m 0,0 km/h (0 Bft) 98,08 %
02.10.2022 22:20 11,6 C 10,0 C 7,2 C 89 % 1023,7 hPa 0,0 l/m 0 min 0 min 0 W/m 3,2 km/h (1 Bft) 100,00 %
02.10.2022 22:22 11,6 C 10,0 C 7,2 C 89 % 1023,7 hPa 0,0 l/m 0 min 0 min 0 W/m 0,0 km/h (0 Bft) 100,00 %
02.10.2022 22:24 11,6 C 10,0 C 7,2 C 89 % 1023,7 hPa 0,0 l/m 0 min 0 min 0 W/m 0,0 km/h (0 Bft) 100,00 %
02.10.2022 22:26 11,6 C 10,0 C 7,2 C 89 % 1023,8 hPa 0,0 l/m 0 min 0 min 0 W/m 3,2 km/h (1 Bft) 97,87 %
02.10.2022 22:28 11,5 C 10,0 C 7,2 C 90 % 1023,8 hPa 0,0 l/m 0 min 0 min 0 W/m 0,0 km/h (0 Bft) 100,00 %
02.10.2022 22:30 11,4 C 10,0 C 7,2 C 90 % 1023,8 hPa 0,0 l/m 0 min 0 min 0 W/m 0,0 km/h (0 Bft) 97,87 %
02.10.2022 22:32 11,4 C 10,0 C 7,2 C 89 % 1023,8 hPa 0,0 l/m 0 min 0 min 0 W/m 0,0 km/h (0 Bft) 97,56 %
02.10.2022 22:34 11,4 C 10,0 C 7,2 C 90 % 1023,8 hPa 0,0 l/m 0 min 0 min 0 W/m 0,0 km/h (0 Bft) 97,87 %
02.10.2022 22:36 11,3 C 9,4 C 6,7 C 90 % 1023,9 hPa 0,0 l/m 0 min 0 min 0 W/m 0,0 km/h (0 Bft) 98,11 %
02.10.2022 22:38 11,3 C 9,4 C 6,7 C 90 % 1024,0 hPa 0,0 l/m 0 min 0 min 0 W/m 0,0 km/h (0 Bft) 97,87 %
02.10.2022 22:40 11,3 C 9,4 C 6,7 C 90 % 1024,0 hPa 0,0 l/m 0 min 0 min 0 W/m 0,0 km/h (0 Bft) 97,83 %
02.10.2022 22:42 11,2 C 9,4 C 6,7 C 90 % 1024,0 hPa 0,0 l/m 0 min 0 min 0 W/m 0,0 km/h (0 Bft) 97,87 %
02.10.2022 22:44 11,2 C 9,4 C 6,7 C 90 % 1024,1 hPa 0,0 l/m 0 min 0 min 0 W/m 0,0 km/h (0 Bft) 97,87 %
02.10.2022 22:46 11,2 C 9,4 C 6,7 C 90 % 1024,2 hPa 0,0 l/m 0 min 0 min 0 W/m 0,0 km/h (0 Bft) 97,56 %
02.10.2022 22:48 11,1 C 9,4 C 6,7 C 90 % 1024,2 hPa 0,0 l/m 0 min 0 min 0 W/m 0,0 km/h (0 Bft) 97,87 %
02.10.2022 22:50 11,1 C 9,4 C 6,7 C 90 % 1024,2 hPa 0,0 l/m 0 min 0 min 0 W/m 0,0 km/h (0 Bft) 95,74 %
02.10.2022 22:52 11,1 C 9,4 C 6,7 C 90 % 1024,2 hPa 0,0 l/m 0 min 0 min 0 W/m 0,0 km/h (0 Bft) 95,65 %
02.10.2022 22:54 11,1 C 9,4 C 6,7 C 90 % 1024,3 hPa 0,0 l/m 0 min 0 min 0 W/m 0,0 km/h (0 Bft) 97,87 %
02.10.2022 22:56 11,0 C 9,4 C 6,7 C 90 % 1024,3 hPa 0,0 l/m 0 min 0 min 0 W/m 0,0 km/h (0 Bft) 98,11 %
02.10.2022 22:58 10,9 C 9,4 C 6,7 C 90 % 1024,3 hPa 0,0 l/m 0 min 0 min 0 W/m 0,0 km/h (0 Bft) 95,74 %
02.10.2022 23:00 10,9 C 9,4 C 6,7 C 90 % 1024,4 hPa 0,0 l/m 0 min 0 min 0 W/m 0,0 km/h (0 Bft) 97,87 %
02.10.2022 23:02 10,9 C 9,4 C 6,7 C 90 % 1024,5 hPa 0,0 l/m 0 min 0 min 0 W/m 0,0 km/h (0 Bft) 97,56 %
02.10.2022 23:04 10,8 C 9,4 C 6,7 C 90 % 1024,6 hPa 0,0 l/m 0 min 0 min 0 W/m 3,2 km/h (1 Bft) 97,92 %
02.10.2022 23:06 10,8 C 9,4 C 6,7 C 90 % 1024,5 hPa 0,0 l/m 0 min 0 min 0 W/m 0,0 km/h (0 Bft) 97,87 %
02.10.2022 23:08 10,8 C 9,4 C 6,7 C 90 % 1024,5 hPa 0,0 l/m 0 min 0 min 0 W/m 0,0 km/h (0 Bft) 98,15 %
02.10.2022 23:10 10,8 C 9,4 C 6,7 C 90 % 1024,5 hPa 0,0 l/m 0 min 0 min 0 W/m 0,0 km/h (0 Bft) 97,87 %
02.10.2022 23:12 10,7 C 9,4 C 6,7 C 91 % 1024,5 hPa 0,0 l/m 0 min 0 min 0 W/m 3,2 km/h (1 Bft) 95,74 %
02.10.2022 23:14 10,7 C 9,4 C 6,7 C 91 % 1024,5 hPa 0,0 l/m 0 min 0 min 0 W/m 0,0 km/h (0 Bft) 97,83 %
02.10.2022 23:16 10,7 C 9,4 C 6,7 C 91 % 1024,5 hPa 0,0 l/m 0 min 0 min 0 W/m 0,0 km/h (0 Bft) 97,87 %
02.10.2022 23:18 10,6 C 9,4 C 6,7 C 91 % 1024,5 hPa 0,0 l/m 0 min 0 min 0 W/m 3,2 km/h (1 Bft) 97,87 %
02.10.2022 23:20 10,6 C 9,4 C 6,7 C 91 % 1024,5 hPa 0,0 l/m 0 min 0 min 0 W/m 0,0 km/h (0 Bft) 95,74 %
02.10.2022 23:22 10,6 C 9,4 C 6,7 C 91 % 1024,5 hPa 0,0 l/m 0 min 0 min 0 W/m 0,0 km/h (0 Bft) 97,87 %
02.10.2022 23:24 10,6 C 9,4 C 6,7 C 91 % 1024,4 hPa 0,0 l/m 0 min 0 min 0 W/m 0,0 km/h (0 Bft) 93,62 %
02.10.2022 23:26 10,6 C 9,4 C 6,7 C 91 % 1024,5 hPa 0,0 l/m 0 min 0 min 0 W/m 0,0 km/h (0 Bft) 97,83 %
02.10.2022 23:28 10,6 C 8,9 C 6,1 C 91 % 1024,6 hPa 0,0 l/m 0 min 0 min 0 W/m 0,0 km/h (0 Bft) 95,74 %
02.10.2022 23:30 10,6 C 8,9 C 6,1 C 91 % 1024,6 hPa 0,0 l/m 0 min 0 min 0 W/m 3,2 km/h (1 Bft) 97,87 %
02.10.2022 23:32 10,5 C 8,9 C 6,1 C 91 % 1024,7 hPa 0,0 l/m 0 min 0 min 0 W/m 3,2 km/h (1 Bft) 97,87 %
02.10.2022 23:34 10,5 C 8,9 C 6,1 C 91 % 1024,7 hPa 0,0 l/m 0 min 0 min 0 W/m 3,2 km/h (1 Bft) 97,87 %
02.10.2022 23:36 10,4 C 8,9 C 6,1 C 91 % 1024,7 hPa 0,0 l/m 0 min 0 min 0 W/m 0,0 km/h (0 Bft) 100,00 %
02.10.2022 23:38 10,4 C 8,9 C 6,1 C 91 % 1024,7 hPa 0,0 l/m 0 min 0 min 0 W/m 0,0 km/h (0 Bft) 100,00 %
02.10.2022 23:40 10,4 C 8,9 C 6,1 C 92 % 1024,8 hPa 0,0 l/m 0 min 0 min 0 W/m 0,0 km/h (0 Bft) 100,00 %
02.10.2022 23:42 10,4 C 8,9 C 6,1 C 92 % 1024,8 hPa 0,0 l/m 0 min 0 min 0 W/m 3,2 km/h (1 Bft) 100,00 %
02.10.2022 23:44 10,4 C 8,9 C 6,1 C 92 % 1024,9 hPa 0,0 l/m 0 min 0 min 0 W/m 3,2 km/h (1 Bft) 100,00 %
02.10.2022 23:46 10,3 C 8,9 C 6,1 C 92 % 1024,8 hPa 0,0 l/m 0 min 0 min 0 W/m 0,0 km/h (0 Bft) 100,00 %
02.10.2022 23:48 10,3 C 8,9 C 6,1 C 92 % 1024,9 hPa 0,0 l/m 0 min 0 min 0 W/m 0,0 km/h (0 Bft) 97,83 %
02.10.2022 23:50 10,3 C 8,9 C 6,1 C 92 % 1024,9 hPa 0,0 l/m 0 min 0 min 0 W/m 0,0 km/h (0 Bft) 97,87 %
02.10.2022 23:52 10,3 C 8,9 C 6,1 C 92 % 1025,0 hPa 0,0 l/m 0 min 0 min 0 W/m 0,0 km/h (0 Bft) 100,00 %
02.10.2022 23:54 10,2 C 8,9 C 6,1 C 92 % 1025,1 hPa 0,0 l/m 0 min 0 min 0 W/m 0,0 km/h (0 Bft) 100,00 %
02.10.2022 23:56 10,2 C 8,9 C 6,1 C 92 % 1025,1 hPa 0,0 l/m 0 min 0 min 0 W/m 3,2 km/h (1 Bft) 100,00 %
02.10.2022 23:58 10,2 C 8,9 C 6,1 C 92 % 1025,1 hPa 0,0 l/m 0 min 0 min 0 W/m 0,0 km/h (0 Bft) 100,00 %
_ Min-Zeit 23:54 23:28 23:28 15:14 00:00 - - - - 19:02 16:02
Minimum _ 10,2 C 8,9 C 6,1 C 77 % 1014,3 hPa - - - - 0,0 km/h (0 Bft) 45,00 %
_ Max-Zeit 14:40 14:04 14:30 09:14 23:54 06:08 18:08 06:08 14:38 05:16 00:40
Maximum _ 17,8 C 18,9 C 13,3 C 99 % 1025,1 hPa 2,2 l/m 4 min 4 min 650 W/m 25,7 km/h
S-SW (4 Bft)
100,00 %
Durchschnitt _ 14,2 C 13,5 C 10,0 C 91 % 1018,2 hPa #13,8 l/m #3:56 h #1:56 h 179 W/m 9,3 km/h (2 Bft) 97,37 %
© 2022 W. Hausmann